Wetterdaten: Samstag, 25.12.2010
Datum Zeit Temp. Innen Temp. Aussen UV X Diff Temp. Feuchte Inne Feuchte Auss Sonnenschein Luftdruck Regen ab 0,1 Wind Sonnenschein T Regendauer Windben
25.12.2010 00:00 8,1 C -3,3 C 0,0 UV-I 0,0 C 45 % 90 % 0 % 1015,9 hPa 0,0 l/m 13,7 km/h (3 Bft) 0 min 0 min 13,8 km/h (3 Bft)
25.12.2010 00:02 8,1 C -3,3 C 0,0 UV-I 0,0 C 45 % 90 % 0 % 1015,9 hPa 0,0 l/m 13,7 km/h (3 Bft) 0 min 0 min 18,7 km/h (3 Bft)
25.12.2010 00:04 8,1 C -3,3 C 0,0 UV-I 0,0 C 45 % 90 % 0 % 1015,9 hPa 0,0 l/m 13,7 km/h (3 Bft) 0 min 0 min 13,8 km/h (3 Bft)
25.12.2010 00:06 8,1 C -3,3 C 0,0 UV-I 0,0 C 45 % 89 % 0 % 1015,9 hPa 0,0 l/m 14,5 km/h (3 Bft) 0 min 0 min 10,6 km/h (2 Bft)
25.12.2010 00:08 8,1 C -3,3 C 0,0 UV-I 0,0 C 45 % 89 % 0 % 1015,9 hPa 0,0 l/m 14,1 km/h (3 Bft) 0 min 0 min 11,6 km/h (2 Bft)
25.12.2010 00:10 8,1 C -3,3 C 0,0 UV-I 0,0 C 45 % 89 % 0 % 1015,9 hPa 0,0 l/m 14,5 km/h (3 Bft) 0 min 0 min 16,4 km/h (3 Bft)
25.12.2010 00:12 8,1 C -3,3 C 0,0 UV-I 0,0 C 45 % 89 % 0 % 1015,9 hPa 0,0 l/m 15,3 km/h (3 Bft) 0 min 0 min 21,2 km/h (4 Bft)
25.12.2010 00:14 8,1 C -3,4 C 0,0 UV-I 0,0 C 45 % 89 % 0 % 1015,9 hPa 0,0 l/m 15,7 km/h (3 Bft) 0 min 0 min 19,6 km/h (3 Bft)
25.12.2010 00:16 8,1 C -3,3 C 0,0 UV-I 0,0 C 45 % 89 % 0 % 1015,9 hPa 0,0 l/m 14,9 km/h (3 Bft) 0 min 0 min 8,7 km/h (2 Bft)
25.12.2010 00:18 8,1 C -3,3 C 0,0 UV-I 0,0 C 45 % 89 % 0 % 1015,9 hPa 0,0 l/m 15,7 km/h (3 Bft) 0 min 0 min 19,0 km/h (3 Bft)
25.12.2010 00:20 8,1 C -3,3 C 0,0 UV-I 0,0 C 45 % 88 % 0 % 1015,9 hPa 0,0 l/m 17,7 km/h (3 Bft) 0 min 0 min 28,6 km/h (4 Bft)
25.12.2010 00:22 7,9 C -3,3 C 0,0 UV-I 0,0 C 45 % 88 % 0 % 1015,9 hPa 0,0 l/m 18,1 km/h (3 Bft) 0 min 0 min 28,6 km/h (4 Bft)
25.12.2010 00:24 7,9 C -3,3 C 0,0 UV-I 0,0 C 45 % 88 % 0 % 1015,9 hPa 0,0 l/m 18,9 km/h (3 Bft) 0 min 0 min 30,3 km/h (5 Bft)
25.12.2010 00:26 7,9 C -3,3 C 0,0 UV-I 0,0 C 45 % 88 % 0 % 1015,9 hPa 0,0 l/m 18,5 km/h (3 Bft) 0 min 0 min 14,2 km/h (3 Bft)
25.12.2010 00:28 7,9 C -3,3 C 0,0 UV-I 0,0 C 45 % 88 % 0 % 1015,9 hPa 0,0 l/m 18,1 km/h (3 Bft) 0 min 0 min 15,1 km/h (3 Bft)
25.12.2010 00:30 7,9 C -3,3 C 0,0 UV-I 0,0 C 45 % 88 % 0 % 1015,9 hPa 0,0 l/m 18,1 km/h (3 Bft) 0 min 0 min 18,7 km/h (3 Bft)
25.12.2010 00:32 7,9 C -3,3 C 0,0 UV-I 0,0 C 45 % 88 % 0 % 1015,9 hPa 0,0 l/m 16,5 km/h (3 Bft) 0 min 0 min 30,3 km/h (5 Bft)
25.12.2010 00:34 7,9 C -3,3 C 0,0 UV-I 0,0 C 45 % 88 % 0 % 1015,9 hPa 0,0 l/m 15,7 km/h (3 Bft) 0 min 0 min 15,8 km/h (3 Bft)
25.12.2010 00:36 7,9 C -3,3 C 0,0 UV-I 0,0 C 44 % 88 % 0 % 1015,9 hPa 0,0 l/m 16,1 km/h (3 Bft) 0 min 0 min 22,9 km/h (4 Bft)
25.12.2010 00:38 7,9 C -3,5 C 0,0 UV-I 0,0 C 45 % 88 % 0 % 1015,9 hPa 0,0 l/m 16,5 km/h (3 Bft) 0 min 0 min 16,4 km/h (3 Bft)
25.12.2010 00:40 7,9 C -3,3 C 0,0 UV-I 0,0 C 44 % 88 % 0 % 1015,9 hPa 0,0 l/m 16,5 km/h (3 Bft) 0 min 0 min 12,2 km/h (2 Bft)
25.12.2010 00:42 7,9 C -3,5 C 0,0 UV-I 0,0 C 44 % 88 % 0 % 1015,9 hPa 0,0 l/m 16,1 km/h (3 Bft) 0 min 0 min 15,8 km/h (3 Bft)
25.12.2010 00:44 7,9 C -3,5 C 0,0 UV-I 0,0 C 44 % 88 % 0 % 1015,9 hPa 0,0 l/m 16,5 km/h (3 Bft) 0 min 0 min 17,4 km/h (3 Bft)
25.12.2010 00:46 7,9 C -3,5 C 0,0 UV-I 0,0 C 44 % 88 % 0 % 1016,2 hPa 0,0 l/m 15,7 km/h (3 Bft) 0 min 0 min 8,4 km/h (2 Bft)
25.12.2010 00:48 7,9 C -3,5 C 0,0 UV-I 0,0 C 44 % 88 % 0 % 1016,2 hPa 0,0 l/m 14,5 km/h (3 Bft) 0 min 0 min 19,3 km/h (3 Bft)
25.12.2010 00:50 7,9 C -3,5 C 0,0 UV-I 0,0 C 45 % 88 % 0 % 1016,2 hPa 0,0 l/m 14,9 km/h (3 Bft) 0 min 0 min 15,1 km/h (3 Bft)
25.12.2010 00:52 8,0 C -3,5 C 0,0 UV-I 0,0 C 44 % 88 % 0 % 1016,2 hPa 0,0 l/m 14,5 km/h (3 Bft) 0 min 0 min 10,6 km/h (2 Bft)
25.12.2010 00:54 7,9 C -3,5 C 0,0 UV-I 0,0 C 44 % 88 % 0 % 1016,2 hPa 0,0 l/m 14,1 km/h (3 Bft) 0 min 0 min 12,6 km/h (3 Bft)
25.12.2010 00:56 7,9 C -3,5 C 0,0 UV-I 0,0 C 44 % 88 % 0 % 1016,2 hPa 0,0 l/m 12,4 km/h (3 Bft) 0 min 0 min 9,7 km/h (2 Bft)
25.12.2010 00:58 8,0 C -3,5 C 0,0 UV-I 0,0 C 44 % 88 % 0 % 1016,2 hPa 0,0 l/m 12,4 km/h (3 Bft) 0 min 0 min 13,5 km/h (3 Bft)
25.12.2010 01:00 7,9 C -3,5 C 0,0 UV-I 0,0 C 44 % 88 % 0 % 1016,2 hPa 0,0 l/m 12,0 km/h (2 Bft) 0 min 0 min 17,4 km/h (3 Bft)
25.12.2010 01:02 8,0 C -3,5 C 0,0 UV-I 0,0 C 44 % 88 % 0 % 1016,2 hPa 0,0 l/m 11,6 km/h (2 Bft) 0 min 0 min 9,0 km/h (2 Bft)
25.12.2010 01:04 7,9 C -3,5 C 0,0 UV-I 0,0 C 44 % 88 % 0 % 1016,2 hPa 0,0 l/m 12,0 km/h (2 Bft) 0 min 0 min 16,4 km/h (3 Bft)
25.12.2010 01:06 7,9 C -3,6 C 0,0 UV-I 0,0 C 44 % 88 % 0 % 1016,2 hPa 0,0 l/m 12,4 km/h (3 Bft) 0 min 0 min 13,8 km/h (3 Bft)
25.12.2010 01:08 8,0 C -3,6 C 0,0 UV-I 0,0 C 44 % 88 % 0 % 1016,2 hPa 0,0 l/m 14,1 km/h (3 Bft) 0 min 0 min 18,7 km/h (3 Bft)
25.12.2010 01:10 7,9 C -3,6 C 0,0 UV-I 0,0 C 44 % 88 % 0 % 1016,2 hPa 0,0 l/m 15,3 km/h (3 Bft) 0 min 0 min 18,3 km/h (3 Bft)
25.12.2010 01:12 8,0 C -3,5 C 0,0 UV-I 0,0 C 44 % 88 % 0 % 1016,2 hPa 0,0 l/m 15,3 km/h (3 Bft) 0 min 0 min 15,4 km/h (3 Bft)
25.12.2010 01:14 8,0 C -3,7 C 0,0 UV-I 0,0 C 44 % 88 % 0 % 1016,2 hPa 0,0 l/m 16,5 km/h (3 Bft) 0 min 0 min 19,3 km/h (3 Bft)
25.12.2010 01:16 7,9 C -3,7 C 0,0 UV-I 0,0 C 44 % 88 % 0 % 1016,2 hPa 0,0 l/m 17,7 km/h (3 Bft) 0 min 0 min 16,7 km/h (3 Bft)
25.12.2010 01:18 8,0 C -3,7 C 0,0 UV-I 0,0 C 44 % 88 % 0 % 1016,2 hPa 0,0 l/m 17,7 km/h (3 Bft) 0 min 0 min 12,9 km/h (3 Bft)
25.12.2010 01:20 8,0 C -3,7 C 0,0 UV-I 0,0 C 44 % 88 % 0 % 1016,2 hPa 0,0 l/m 16,5 km/h (3 Bft) 0 min 0 min 15,1 km/h (3 Bft)
25.12.2010 01:22 8,0 C -3,7 C 0,0 UV-I 0,0 C 44 % 88 % 0 % 1016,2 hPa 0,0 l/m 17,7 km/h (3 Bft) 0 min 0 min 20,0 km/h (4 Bft)
25.12.2010 01:24 8,0 C -3,7 C 0,0 UV-I 0,0 C 44 % 88 % 0 % 1016,2 hPa 0,0 l/m 18,1 km/h (3 Bft) 0 min 0 min 20,9 km/h (4 Bft)
25.12.2010 01:26 8,0 C -3,8 C 0,0 UV-I 0,0 C 44 % 88 % 0 % 1016,2 hPa 0,0 l/m 17,7 km/h (3 Bft) 0 min 0 min 29,0 km/h (5 Bft)
25.12.2010 01:28 8,0 C -3,8 C 0,0 UV-I 0,0 C 44 % 87 % 0 % 1016,2 hPa 0,0 l/m 18,5 km/h (3 Bft) 0 min 0 min 16,7 km/h (3 Bft)
25.12.2010 01:30 8,0 C -3,7 C 0,0 UV-I 0,0 C 44 % 87 % 0 % 1016,2 hPa 0,0 l/m 19,3 km/h (3 Bft) 0 min 0 min 17,7 km/h (3 Bft)
25.12.2010 01:32 8,0 C -3,7 C 0,0 UV-I 0,0 C 44 % 87 % 0 % 1016,2 hPa 0,0 l/m 21,3 km/h (4 Bft) 0 min 0 min 34,1 km/h (5 Bft)
25.12.2010 01:34 8,0 C -3,9 C 0,0 UV-I 0,0 C 44 % 87 % 0 % 1016,2 hPa 0,0 l/m 22,1 km/h (4 Bft) 0 min 0 min 11,9 km/h (2 Bft)
25.12.2010 01:36 8,0 C -3,9 C 0,0 UV-I 0,0 C 44 % 87 % 0 % 1016,2 hPa 0,0 l/m 22,1 km/h (4 Bft) 0 min 0 min 19,3 km/h (3 Bft)
25.12.2010 01:38 8,0 C -3,9 C 0,0 UV-I 0,0 C 44 % 87 % 0 % 1016,2 hPa 0,0 l/m 22,1 km/h (4 Bft) 0 min 0 min 16,7 km/h (3 Bft)
25.12.2010 01:40 8,0 C -4,0 C 0,0 UV-I 0,0 C 44 % 87 % 0 % 1016,2 hPa 0,0 l/m 21,3 km/h (4 Bft) 0 min 0 min 14,2 km/h (3 Bft)
25.12.2010 01:42 8,0 C -4,0 C 0,0 UV-I 0,0 C 44 % 87 % 0 % 1016,2 hPa 0,0 l/m 21,3 km/h (4 Bft) 0 min 0 min 21,2 km/h (4 Bft)
25.12.2010 01:44 8,0 C -4,0 C 0,0 UV-I 0,0 C 44 % 86 % 0 % 1016,2 hPa 0,0 l/m 20,1 km/h (4 Bft) 0 min 0 min 20,9 km/h (4 Bft)
25.12.2010 01:46 8,0 C -4,0 C 0,0 UV-I 0,0 C 44 % 86 % 0 % 1016,2 hPa 0,0 l/m 21,3 km/h (4 Bft) 0 min 0 min 17,7 km/h (3 Bft)
25.12.2010 01:48 7,8 C -4,0 C 0,0 UV-I 0,0 C 44 % 86 % 0 % 1016,2 hPa 0,0 l/m 20,9 km/h (4 Bft) 0 min 0 min 22,9 km/h (4 Bft)
25.12.2010 01:50 7,8 C -4,0 C 0,0 UV-I 0,0 C 44 % 87 % 0 % 1016,2 hPa 0,0 l/m 22,1 km/h (4 Bft) 0 min 0 min 17,1 km/h (3 Bft)
25.12.2010 01:52 7,8 C -4,0 C 0,0 UV-I 0,0 C 44 % 87 % 0 % 1016,2 hPa 0,0 l/m 21,7 km/h (4 Bft) 0 min 0 min 17,7 km/h (3 Bft)
25.12.2010 01:54 7,8 C -3,9 C 0,0 UV-I 0,0 C 44 % 87 % 0 % 1016,2 hPa 0,0 l/m 20,5 km/h (4 Bft) 0 min 0 min 21,9 km/h (4 Bft)
25.12.2010 01:56 7,8 C -3,9 C 0,0 UV-I 0,0 C 44 % 87 % 0 % 1016,2 hPa 0,0 l/m 20,5 km/h (4 Bft) 0 min 0 min 17,7 km/h (3 Bft)
25.12.2010 01:58 7,9 C -3,9 C 0,0 UV-I 0,0 C 44 % 87 % 0 % 1016,2 hPa 0,0 l/m 20,5 km/h (4 Bft) 0 min 0 min 20,0 km/h (4 Bft)
25.12.2010 02:00 7,9 C -3,9 C 0,0 UV-I 0,0 C 44 % 87 % 0 % 1016,2 hPa 0,0 l/m 19,3 km/h (3 Bft) 0 min 0 min 15,8 km/h (3 Bft)
25.12.2010 02:02 7,8 C -3,9 C 0,0 UV-I 0,0 C 44 % 87 % 0 % 1016,2 hPa 0,0 l/m 19,7 km/h (3 Bft) 0 min 0 min 38,6 km/h (5 Bft)
25.12.2010 02:04 7,9 C -4,1 C 0,0 UV-I 0,0 C 44 % 87 % 0 % 1016,2 hPa 0,0 l/m 20,1 km/h (4 Bft) 0 min 0 min 16,4 km/h (3 Bft)
25.12.2010 02:06 7,9 C -4,1 C 0,0 UV-I 0,0 C 44 % 87 % 0 % 1016,2 hPa 0,0 l/m 20,9 km/h (4 Bft) 0 min 0 min 28,6 km/h (4 Bft)
25.12.2010 02:08 7,9 C -4,1 C 0,0 UV-I 0,0 C 44 % 87 % 0 % 1016,2 hPa 0,0 l/m 21,3 km/h (4 Bft) 0 min 0 min 19,6 km/h (3 Bft)
25.12.2010 02:10 7,9 C -4,1 C 0,0 UV-I 0,0 C 44 % 87 % 0 % 1016,2 hPa 0,0 l/m 22,5 km/h (4 Bft) 0 min 0 min 24,8 km/h (4 Bft)
25.12.2010 02:12 7,9 C -4,1 C 0,0 UV-I 0,0 C 44 % 86 % 0 % 1016,2 hPa 0,0 l/m 22,5 km/h (4 Bft) 0 min 0 min 14,5 km/h (3 Bft)
25.12.2010 02:14 7,9 C -4,1 C 0,0 UV-I 0,0 C 44 % 86 % 0 % 1016,2 hPa 0,0 l/m 22,9 km/h (4 Bft) 0 min 0 min 24,1 km/h (4 Bft)
25.12.2010 02:16 7,8 C -4,1 C 0,0 UV-I 0,0 C 44 % 86 % 0 % 1016,2 hPa 0,0 l/m 22,1 km/h (4 Bft) 0 min 0 min 19,0 km/h (3 Bft)
25.12.2010 02:18 7,8 C -4,1 C 0,0 UV-I 0,0 C 44 % 86 % 0 % 1016,2 hPa 0,0 l/m 21,7 km/h (4 Bft) 0 min 0 min 22,9 km/h (4 Bft)
25.12.2010 02:20 7,8 C -4,1 C 0,0 UV-I 0,0 C 44 % 86 % 0 % 1016,2 hPa 0,0 l/m 20,1 km/h (4 Bft) 0 min 0 min 15,4 km/h (3 Bft)
25.12.2010 02:22 7,8 C -4,1 C 0,0 UV-I 0,0 C 44 % 87 % 0 % 1016,2 hPa 0,0 l/m 18,9 km/h (3 Bft) 0 min 0 min 16,1 km/h (3 Bft)
25.12.2010 02:24 7,8 C -4,1 C 0,0 UV-I 0,0 C 44 % 87 % 0 % 1016,2 hPa 0,0 l/m 19,3 km/h (3 Bft) 0 min 0 min 22,2 km/h (4 Bft)
25.12.2010 02:26 7,8 C -4,1 C 0,0 UV-I 0,0 C 44 % 87 % 0 % 1017,2 hPa 0,0 l/m 19,3 km/h (3 Bft) 0 min 0 min 30,6 km/h (5 Bft)
25.12.2010 02:28 7,8 C -4,1 C 0,0 UV-I 0,0 C 44 % 86 % 0 % 1017,2 hPa 0,0 l/m 18,9 km/h (3 Bft) 0 min 0 min 15,8 km/h (3 Bft)
25.12.2010 02:30 7,8 C -4,1 C 0,0 UV-I 0,0 C 44 % 86 % 0 % 1017,2 hPa 0,0 l/m 18,9 km/h (3 Bft) 0 min 0 min 12,9 km/h (3 Bft)
25.12.2010 02:32 7,8 C -4,1 C 0,0 UV-I 0,0 C 44 % 87 % 0 % 1017,2 hPa 0,0 l/m 18,5 km/h (3 Bft) 0 min 0 min 17,4 km/h (3 Bft)
25.12.2010 02:34 7,8 C -4,1 C 0,0 UV-I 0,0 C 44 % 86 % 0 % 1017,2 hPa 0,0 l/m 17,7 km/h (3 Bft) 0 min 0 min 14,5 km/h (3 Bft)
25.12.2010 02:36 7,8 C -4,2 C 0,0 UV-I 0,0 C 44 % 86 % 0 % 1017,2 hPa 0,0 l/m 17,7 km/h (3 Bft) 0 min 0 min 17,1 km/h (3 Bft)
25.12.2010 02:38 7,8 C -4,2 C 0,0 UV-I 0,0 C 44 % 86 % 0 % 1017,2 hPa 0,0 l/m 16,5 km/h (3 Bft) 0 min 0 min 17,7 km/h (3 Bft)
25.12.2010 02:40 7,8 C -4,2 C 0,0 UV-I 0,0 C 44 % 87 % 0 % 1017,2 hPa 0,0 l/m 15,7 km/h (3 Bft) 0 min 0 min 10,0 km/h (2 Bft)
25.12.2010 02:42 7,8 C -4,1 C 0,0 UV-I 0,0 C 44 % 87 % 0 % 1017,2 hPa 0,0 l/m 15,3 km/h (3 Bft) 0 min 0 min 10,6 km/h (2 Bft)
25.12.2010 02:44 7,8 C -4,1 C 0,0 UV-I 0,0 C 44 % 87 % 0 % 1017,2 hPa 0,0 l/m 14,9 km/h (3 Bft) 0 min 0 min 8,4 km/h (2 Bft)
25.12.2010 02:46 7,8 C -4,1 C 0,0 UV-I 0,0 C 44 % 87 % 0 % 1017,4 hPa 0,0 l/m 13,7 km/h (3 Bft) 0 min 0 min 14,2 km/h (3 Bft)
25.12.2010 02:48 7,8 C -4,1 C 0,0 UV-I 0,0 C 44 % 87 % 0 % 1017,4 hPa 0,0 l/m 12,8 km/h (3 Bft) 0 min 0 min 10,0 km/h (2 Bft)
25.12.2010 02:50 7,8 C -4,1 C 0,0 UV-I 0,0 C 44 % 87 % 0 % 1017,4 hPa 0,0 l/m 10,8 km/h (2 Bft) 0 min 0 min 9,3 km/h (2 Bft)
25.12.2010 02:52 7,8 C -4,1 C 0,0 UV-I 0,0 C 44 % 88 % 0 % 1017,4 hPa 0,0 l/m 11,2 km/h (2 Bft) 0 min 0 min 12,6 km/h (3 Bft)
25.12.2010 02:54 7,8 C -4,1 C 0,0 UV-I 0,0 C 44 % 88 % 0 % 1017,4 hPa 0,0 l/m 10,8 km/h (2 Bft) 0 min 0 min 10,0 km/h (2 Bft)
25.12.2010 02:56 7,8 C -4,1 C 0,0 UV-I 0,0 C 44 % 88 % 0 % 1017,4 hPa 0,0 l/m 12,0 km/h (2 Bft) 0 min 0 min 13,8 km/h (3 Bft)
25.12.2010 02:58 7,8 C -4,1 C 0,0 UV-I 0,0 C 44 % 88 % 0 % 1017,4 hPa 0,0 l/m 11,6 km/h (2 Bft) 0 min 0 min 10,6 km/h (2 Bft)
25.12.2010 03:00 7,8 C -4,1 C 0,0 UV-I 0,0 C 44 % 88 % 0 % 1017,4 hPa 0,0 l/m 13,3 km/h (3 Bft) 0 min 0 min 10,6 km/h (2 Bft)
25.12.2010 03:02 7,8 C -4,3 C 0,0 UV-I 0,0 C 44 % 88 % 0 % 1017,4 hPa 0,0 l/m 14,1 km/h (3 Bft) 0 min 0 min 16,4 km/h (3 Bft)
25.12.2010 03:04 7,8 C -4,3 C 0,0 UV-I 0,0 C 44 % 88 % 0 % 1017,4 hPa 0,0 l/m 14,1 km/h (3 Bft) 0 min 0 min 16,4 km/h (3 Bft)
25.12.2010 03:06 7,8 C -4,3 C 0,0 UV-I 0,0 C 44 % 88 % 0 % 1017,4 hPa 0,0 l/m 14,5 km/h (3 Bft) 0 min 0 min 13,2 km/h (3 Bft)
25.12.2010 03:08 7,8 C -4,3 C 0,0 UV-I 0,0 C 44 % 88 % 0 % 1017,4 hPa 0,0 l/m 14,1 km/h (3 Bft) 0 min 0 min 12,6 km/h (3 Bft)
25.12.2010 03:10 7,8 C -4,3 C 0,0 UV-I 0,0 C 44 % 88 % 0 % 1017,4 hPa 0,0 l/m 13,7 km/h (3 Bft) 0 min 0 min 12,9 km/h (3 Bft)
25.12.2010 03:12 7,8 C -4,3 C 0,0 UV-I 0,0 C 44 % 88 % 0 % 1017,4 hPa 0,0 l/m 13,3 km/h (3 Bft) 0 min 0 min 9,3 km/h (2 Bft)
25.12.2010 03:14 7,8 C -4,3 C 0,0 UV-I 0,0 C 44 % 88 % 0 % 1017,4 hPa 0,0 l/m 12,8 km/h (3 Bft) 0 min 0 min 14,2 km/h (3 Bft)
25.12.2010 03:16 7,6 C -4,3 C 0,0 UV-I 0,0 C 44 % 88 % 0 % 1017,4 hPa 0,0 l/m 12,8 km/h (3 Bft) 0 min 0 min 10,9 km/h (2 Bft)
25.12.2010 03:18 7,8 C -4,3 C 0,0 UV-I 0,0 C 44 % 88 % 0 % 1017,4 hPa 0,0 l/m 11,2 km/h (2 Bft) 0 min 0 min 0,0 km/h (0 Bft)
25.12.2010 03:20 7,8 C -4,3 C 0,0 UV-I 0,0 C 44 % 88 % 0 % 1017,4 hPa 0,0 l/m 10,4 km/h (2 Bft) 0 min 0 min 8,7 km/h (2 Bft)
25.12.2010 03:22 7,6 C -4,3 C 0,0 UV-I 0,0 C 44 % 88 % 0 % 1017,4 hPa 0,0 l/m 10,4 km/h (2 Bft) 0 min 0 min 18,3 km/h (3 Bft)
25.12.2010 03:24 7,8 C -4,3 C 0,0 UV-I 0,0 C 44 % 88 % 0 % 1017,4 hPa 0,0 l/m 10,8 km/h (2 Bft) 0 min 0 min 12,2 km/h (2 Bft)
25.12.2010 03:26 7,8 C -4,3 C 0,0 UV-I 0,0 C 44 % 88 % 0 % 1017,4 hPa 0,0 l/m 10,8 km/h (2 Bft) 0 min 0 min 12,2 km/h (2 Bft)
25.12.2010 03:28 7,8 C -4,3 C 0,0 UV-I 0,0 C 44 % 88 % 0 % 1017,4 hPa 0,0 l/m 11,6 km/h (2 Bft) 0 min 0 min 12,2 km/h (2 Bft)
25.12.2010 03:30 7,8 C -4,3 C 0,0 UV-I 0,0 C 44 % 88 % 0 % 1017,4 hPa 0,0 l/m 13,7 km/h (3 Bft) 0 min 0 min 10,0 km/h (2 Bft)
25.12.2010 03:32 7,8 C -4,4 C 0,0 UV-I 0,0 C 44 % 88 % 0 % 1017,4 hPa 0,0 l/m 14,5 km/h (3 Bft) 0 min 0 min 8,7 km/h (2 Bft)
25.12.2010 03:34 7,8 C -4,4 C 0,0 UV-I 0,0 C 44 % 87 % 0 % 1017,4 hPa 0,0 l/m 13,7 km/h (3 Bft) 0 min 0 min 8,7 km/h (2 Bft)
25.12.2010 03:36 7,8 C -4,4 C 0,0 UV-I 0,0 C 44 % 87 % 0 % 1017,4 hPa 0,0 l/m 14,1 km/h (3 Bft) 0 min 0 min 18,0 km/h (3 Bft)
25.12.2010 03:38 7,8 C -4,5 C 0,0 UV-I 0,0 C 44 % 87 % 0 % 1017,4 hPa 0,0 l/m 14,5 km/h (3 Bft) 0 min 0 min 11,6 km/h (2 Bft)
25.12.2010 03:40 7,8 C -4,5 C 0,0 UV-I 0,0 C 44 % 87 % 0 % 1017,4 hPa 0,0 l/m 14,9 km/h (3 Bft) 0 min 0 min 15,4 km/h (3 Bft)
25.12.2010 03:42 7,8 C -4,5 C 0,0 UV-I 0,0 C 44 % 87 % 0 % 1017,4 hPa 0,0 l/m 14,5 km/h (3 Bft) 0 min 0 min 13,8 km/h (3 Bft)
25.12.2010 03:44 7,8 C -4,5 C 0,0 UV-I 0,0 C 44 % 87 % 0 % 1017,4 hPa 0,0 l/m 14,1 km/h (3 Bft) 0 min 0 min 10,9 km/h (2 Bft)
25.12.2010 03:46 7,8 C -4,5 C 0,0 UV-I 0,0 C 44 % 87 % 0 % 1017,4 hPa 0,0 l/m 14,5 km/h (3 Bft) 0 min 0 min 11,3 km/h (2 Bft)
25.12.2010 03:48 7,8 C -4,5 C 0,0 UV-I 0,0 C 44 % 87 % 0 % 1017,4 hPa 0,0 l/m 14,1 km/h (3 Bft) 0 min 0 min 15,4 km/h (3 Bft)
25.12.2010 03:50 7,8 C -4,6 C 0,0 UV-I 0,0 C 44 % 87 % 0 % 1017,4 hPa 0,0 l/m 13,7 km/h (3 Bft) 0 min 0 min 9,0 km/h (2 Bft)
25.12.2010 03:52 7,8 C -4,5 C 0,0 UV-I 0,0 C 44 % 87 % 0 % 1017,4 hPa 0,0 l/m 13,3 km/h (3 Bft) 0 min 0 min 10,0 km/h (2 Bft)
25.12.2010 03:54 7,8 C -4,5 C 0,0 UV-I 0,0 C 44 % 87 % 0 % 1017,4 hPa 0,0 l/m 12,8 km/h (3 Bft) 0 min 0 min 9,0 km/h (2 Bft)
25.12.2010 03:56 7,6 C -4,5 C 0,0 UV-I 0,0 C 44 % 87 % 0 % 1017,4 hPa 0,0 l/m 12,8 km/h (3 Bft) 0 min 0 min 10,3 km/h (2 Bft)
25.12.2010 03:58 7,8 C -4,5 C 0,0 UV-I 0,0 C 44 % 87 % 0 % 1017,4 hPa 0,0 l/m 11,6 km/h (2 Bft) 0 min 0 min 10,0 km/h (2 Bft)
25.12.2010 04:00 7,6 C -4,7 C 0,0 UV-I 0,0 C 44 % 88 % 0 % 1017,4 hPa 0,0 l/m 10,4 km/h (2 Bft) 0 min 0 min 9,0 km/h (2 Bft)
25.12.2010 04:02 7,6 C -4,7 C 0,0 UV-I 0,0 C 43 % 88 % 0 % 1017,4 hPa 0,0 l/m 9,6 km/h (2 Bft) 0 min 0 min 10,0 km/h (2 Bft)
25.12.2010 04:04 7,8 C -4,7 C 0,0 UV-I 0,0 C 44 % 88 % 0 % 1017,4 hPa 0,0 l/m 9,6 km/h (2 Bft) 0 min 0 min 6,8 km/h (2 Bft)
25.12.2010 04:06 7,8 C -4,7 C 0,0 UV-I 0,0 C 43 % 88 % 0 % 1017,4 hPa 0,0 l/m 10,0 km/h (2 Bft) 0 min 0 min 11,3 km/h (2 Bft)
25.12.2010 04:08 7,6 C -4,7 C 0,0 UV-I 0,0 C 43 % 88 % 0 % 1017,4 hPa 0,0 l/m 9,6 km/h (2 Bft) 0 min 0 min 10,0 km/h (2 Bft)
25.12.2010 04:10 7,6 C -4,7 C 0,0 UV-I 0,0 C 43 % 88 % 0 % 1017,4 hPa 0,0 l/m 10,0 km/h (2 Bft) 0 min 0 min 11,3 km/h (2 Bft)
25.12.2010 04:12 7,6 C -4,7 C 0,0 UV-I 0,0 C 44 % 88 % 0 % 1017,4 hPa 0,0 l/m 10,8 km/h (2 Bft) 0 min 0 min 8,0 km/h (2 Bft)
25.12.2010 04:14 7,6 C -4,7 C 0,0 UV-I 0,0 C 44 % 88 % 0 % 1017,4 hPa 0,0 l/m 10,8 km/h (2 Bft) 0 min 0 min 12,2 km/h (2 Bft)
25.12.2010 04:16 7,6 C -4,8 C 0,0 UV-I 0,0 C 43 % 88 % 0 % 1017,4 hPa 0,0 l/m 11,6 km/h (2 Bft) 0 min 0 min 19,6 km/h (3 Bft)
25.12.2010 04:18 7,6 C -4,8 C 0,0 UV-I 0,0 C 44 % 88 % 0 % 1017,4 hPa 0,0 l/m 12,4 km/h (3 Bft) 0 min 0 min 11,3 km/h (2 Bft)
25.12.2010 04:20 7,6 C -4,8 C 0,0 UV-I 0,0 C 43 % 88 % 0 % 1017,4 hPa 0,0 l/m 12,0 km/h (2 Bft) 0 min 0 min 9,3 km/h (2 Bft)
25.12.2010 04:22 7,6 C -4,8 C 0,0 UV-I 0,0 C 43 % 88 % 0 % 1017,4 hPa 0,0 l/m 12,4 km/h (3 Bft) 0 min 0 min 15,4 km/h (3 Bft)
25.12.2010 04:24 7,6 C -4,8 C 0,0 UV-I 0,0 C 43 % 88 % 0 % 1017,4 hPa 0,0 l/m 13,7 km/h (3 Bft) 0 min 0 min 15,1 km/h (3 Bft)
25.12.2010 04:26 7,6 C -4,7 C 0,0 UV-I 0,0 C 43 % 88 % 0 % 1018,3 hPa 0,0 l/m 13,7 km/h (3 Bft) 0 min 0 min 11,3 km/h (2 Bft)
25.12.2010 04:28 7,6 C -4,7 C 0,0 UV-I 0,0 C 43 % 88 % 0 % 1018,3 hPa 0,0 l/m 13,3 km/h (3 Bft) 0 min 0 min 10,9 km/h (2 Bft)
25.12.2010 04:30 7,6 C -4,9 C 0,0 UV-I 0,0 C 43 % 88 % 0 % 1018,3 hPa 0,0 l/m 14,1 km/h (3 Bft) 0 min 0 min 13,5 km/h (3 Bft)
25.12.2010 04:32 7,6 C -4,9 C 0,0 UV-I 0,0 C 43 % 88 % 0 % 1018,3 hPa 0,0 l/m 13,3 km/h (3 Bft) 0 min 0 min 9,0 km/h (2 Bft)
25.12.2010 04:34 7,6 C -4,9 C 0,0 UV-I 0,0 C 43 % 88 % 0 % 1018,3 hPa 0,0 l/m 12,4 km/h (3 Bft) 0 min 0 min 9,3 km/h (2 Bft)
25.12.2010 04:36 7,6 C -4,9 C 0,0 UV-I 0,0 C 43 % 88 % 0 % 1018,3 hPa 0,0 l/m 11,6 km/h (2 Bft) 0 min 0 min 8,4 km/h (2 Bft)
25.12.2010 04:38 7,6 C -4,9 C 0,0 UV-I 0,0 C 43 % 88 % 0 % 1018,3 hPa 0,0 l/m 11,2 km/h (2 Bft) 0 min 0 min 8,0 km/h (2 Bft)
25.12.2010 04:40 7,6 C -4,9 C 0,0 UV-I 0,0 C 43 % 88 % 0 % 1018,3 hPa 0,0 l/m 11,6 km/h (2 Bft) 0 min 0 min 10,0 km/h (2 Bft)
25.12.2010 04:42 7,6 C -4,9 C 0,0 UV-I 0,0 C 43 % 88 % 0 % 1018,3 hPa 0,0 l/m 10,8 km/h (2 Bft) 0 min 0 min 7,7 km/h (2 Bft)
25.12.2010 04:44 7,6 C -4,9 C 0,0 UV-I 0,0 C 43 % 88 % 0 % 1018,3 hPa 0,0 l/m 10,8 km/h (2 Bft) 0 min 0 min 9,7 km/h (2 Bft)
25.12.2010 04:46 7,6 C -5,0 C 0,0 UV-I 0,0 C 43 % 88 % 0 % 1018,5 hPa 0,0 l/m 11,2 km/h (2 Bft) 0 min 0 min 11,9 km/h (2 Bft)
25.12.2010 04:48 7,6 C -5,0 C 0,0 UV-I 0,0 C 43 % 88 % 0 % 1018,5 hPa 0,0 l/m 11,6 km/h (2 Bft) 0 min 0 min 13,2 km/h (3 Bft)
25.12.2010 04:50 7,6 C -4,9 C 0,0 UV-I 0,0 C 43 % 88 % 0 % 1018,5 hPa 0,0 l/m 11,2 km/h (2 Bft) 0 min 0 min 18,0 km/h (3 Bft)
25.12.2010 04:52 7,7 C -4,9 C 0,0 UV-I 0,0 C 43 % 88 % 0 % 1018,5 hPa 0,0 l/m 11,6 km/h (2 Bft) 0 min 0 min 9,7 km/h (2 Bft)
25.12.2010 04:54 7,6 C -4,9 C 0,0 UV-I 0,0 C 43 % 88 % 0 % 1018,5 hPa 0,0 l/m 12,0 km/h (2 Bft) 0 min 0 min 7,7 km/h (2 Bft)
25.12.2010 04:56 7,6 C -4,9 C 0,0 UV-I 0,0 C 43 % 88 % 0 % 1018,5 hPa 0,0 l/m 12,4 km/h (3 Bft) 0 min 0 min 12,6 km/h (3 Bft)
25.12.2010 04:58 7,6 C -4,9 C 0,0 UV-I 0,0 C 43 % 88 % 0 % 1018,5 hPa 0,0 l/m 12,8 km/h (3 Bft) 0 min 0 min 15,1 km/h (3 Bft)
25.12.2010 05:00 7,7 C -5,0 C 0,0 UV-I 0,0 C 43 % 88 % 0 % 1018,5 hPa 0,0 l/m 12,8 km/h (3 Bft) 0 min 0 min 12,6 km/h (3 Bft)
25.12.2010 05:02 7,7 C -5,0 C 0,0 UV-I 0,0 C 43 % 88 % 0 % 1018,5 hPa 0,0 l/m 12,4 km/h (3 Bft) 0 min 0 min 11,9 km/h (2 Bft)
25.12.2010 05:04 7,7 C -5,0 C 0,0 UV-I 0,0 C 43 % 88 % 0 % 1018,5 hPa 0,0 l/m 12,0 km/h (2 Bft) 0 min 0 min 8,0 km/h (2 Bft)
25.12.2010 05:06 7,5 C -4,9 C 0,0 UV-I 0,0 C 43 % 88 % 0 % 1018,5 hPa 0,0 l/m 11,6 km/h (2 Bft) 0 min 0 min 9,0 km/h (2 Bft)
25.12.2010 05:08 7,5 C -4,9 C 0,0 UV-I 0,0 C 43 % 88 % 0 % 1018,5 hPa 0,0 l/m 10,4 km/h (2 Bft) 0 min 0 min 10,0 km/h (2 Bft)
25.12.2010 05:10 7,5 C -4,9 C 0,0 UV-I 0,0 C 43 % 88 % 0 % 1018,5 hPa 0,0 l/m 10,0 km/h (2 Bft) 0 min 0 min 8,4 km/h (2 Bft)
25.12.2010 05:12 7,5 C -4,9 C 0,0 UV-I 0,0 C 43 % 88 % 0 % 1018,5 hPa 0,0 l/m 10,4 km/h (2 Bft) 0 min 0 min 14,2 km/h (3 Bft)
25.12.2010 05:14 7,5 C -4,9 C 0,0 UV-I 0,0 C 43 % 88 % 0 % 1018,5 hPa 0,0 l/m 9,6 km/h (2 Bft) 0 min 0 min 10,9 km/h (2 Bft)
25.12.2010 05:16 7,5 C -4,9 C 0,0 UV-I 0,0 C 43 % 88 % 0 % 1018,5 hPa 0,0 l/m 9,2 km/h (2 Bft) 0 min 0 min 6,8 km/h (2 Bft)
25.12.2010 05:18 7,5 C -4,9 C 0,0 UV-I 0,0 C 43 % 88 % 0 % 1018,5 hPa 0,0 l/m 10,4 km/h (2 Bft) 0 min 0 min 12,9 km/h (3 Bft)
25.12.2010 05:20 7,5 C -4,9 C 0,0 UV-I 0,0 C 43 % 88 % 0 % 1018,5 hPa 0,0 l/m 10,4 km/h (2 Bft) 0 min 0 min 14,2 km/h (3 Bft)
25.12.2010 05:22 7,5 C -4,9 C 0,0 UV-I 0,0 C 43 % 88 % 0 % 1018,5 hPa 0,0 l/m 10,0 km/h (2 Bft) 0 min 0 min 17,1 km/h (3 Bft)
25.12.2010 05:24 7,5 C -4,9 C 0,0 UV-I 0,0 C 43 % 88 % 0 % 1018,5 hPa 0,0 l/m 10,8 km/h (2 Bft) 0 min 0 min 11,3 km/h (2 Bft)
25.12.2010 05:26 7,5 C -5,1 C 0,0 UV-I 0,0 C 43 % 88 % 0 % 1018,5 hPa 0,0 l/m 10,8 km/h (2 Bft) 0 min 0 min 10,9 km/h (2 Bft)
25.12.2010 05:28 7,5 C -5,1 C 0,0 UV-I 0,0 C 43 % 88 % 0 % 1018,5 hPa 0,0 l/m 10,4 km/h (2 Bft) 0 min 0 min 16,1 km/h (3 Bft)
25.12.2010 05:30 7,5 C -5,1 C 0,0 UV-I 0,0 C 43 % 88 % 0 % 1018,5 hPa 0,0 l/m 10,0 km/h (2 Bft) 0 min 0 min 13,2 km/h (3 Bft)
25.12.2010 05:32 7,5 C -5,1 C 0,0 UV-I 0,0 C 43 % 88 % 0 % 1018,5 hPa 0,0 l/m 10,4 km/h (2 Bft) 0 min 0 min 9,0 km/h (2 Bft)
25.12.2010 05:34 7,5 C -5,1 C 0,0 UV-I 0,0 C 43 % 88 % 0 % 1018,5 hPa 0,0 l/m 10,0 km/h (2 Bft) 0 min 0 min 7,1 km/h (2 Bft)
25.12.2010 05:36 7,5 C -5,1 C 0,0 UV-I 0,0 C 43 % 88 % 0 % 1018,5 hPa 0,0 l/m 10,4 km/h (2 Bft) 0 min 0 min 9,0 km/h (2 Bft)
25.12.2010 05:38 7,5 C -5,1 C 0,0 UV-I 0,0 C 43 % 88 % 0 % 1018,5 hPa 0,0 l/m 10,4 km/h (2 Bft) 0 min 0 min 8,4 km/h (2 Bft)
25.12.2010 05:40 7,5 C -5,2 C 0,0 UV-I 0,0 C 43 % 88 % 0 % 1018,5 hPa 0,0 l/m 10,0 km/h (2 Bft) 0 min 0 min 10,6 km/h (2 Bft)
25.12.2010 05:42 7,5 C -5,1 C 0,0 UV-I 0,0 C 43 % 88 % 0 % 1018,5 hPa 0,0 l/m 9,6 km/h (2 Bft) 0 min 0 min 6,4 km/h (2 Bft)
25.12.2010 05:44 7,5 C -5,2 C 0,0 UV-I 0,0 C 43 % 88 % 0 % 1018,5 hPa 0,0 l/m 9,2 km/h (2 Bft) 0 min 0 min 4,5 km/h (1 Bft)
25.12.2010 05:46 7,5 C -5,2 C 0,0 UV-I 0,0 C 43 % 88 % 0 % 1018,5 hPa 0,0 l/m 8,0 km/h (2 Bft) 0 min 0 min 3,9 km/h (1 Bft)
25.12.2010 05:48 7,5 C -5,1 C 0,0 UV-I 0,0 C 43 % 88 % 0 % 1018,5 hPa 0,0 l/m 7,2 km/h (2 Bft) 0 min 0 min 10,0 km/h (2 Bft)
25.12.2010 05:50 7,5 C -5,3 C 0,0 UV-I 0,0 C 43 % 88 % 0 % 1018,5 hPa 0,0 l/m 6,8 km/h (2 Bft) 0 min 0 min 6,1 km/h (2 Bft)
25.12.2010 05:52 7,6 C -5,3 C 0,0 UV-I 0,0 C 43 % 88 % 0 % 1018,5 hPa 0,0 l/m 6,0 km/h (2 Bft) 0 min 0 min 5,5 km/h (1 Bft)
25.12.2010 05:54 7,5 C -5,3 C 0,0 UV-I 0,0 C 43 % 88 % 0 % 1018,5 hPa 0,0 l/m 5,2 km/h (1 Bft) 0 min 0 min 0,0 km/h (0 Bft)
25.12.2010 05:56 7,5 C -5,3 C 0,0 UV-I 0,0 C 43 % 88 % 0 % 1018,5 hPa 0,0 l/m 4,4 km/h (1 Bft) 0 min 0 min 8,4 km/h (2 Bft)
25.12.2010 05:58 7,5 C -5,3 C 0,0 UV-I 0,0 C 43 % 88 % 0 % 1018,5 hPa 0,0 l/m 3,6 km/h (1 Bft) 0 min 0 min 3,5 km/h (1 Bft)
25.12.2010 06:00 7,5 C -5,3 C 0,0 UV-I 0,0 C 43 % 88 % 0 % 1018,5 hPa 0,0 l/m 3,6 km/h (1 Bft) 0 min 0 min 5,1 km/h (1 Bft)
25.12.2010 06:02 7,6 C -5,4 C 0,0 UV-I 0,0 C 43 % 88 % 0 % 1018,5 hPa 0,0 l/m 4,4 km/h (1 Bft) 0 min 0 min 5,8 km/h (2 Bft)
25.12.2010 06:04 7,5 C -5,4 C 0,0 UV-I 0,0 C 43 % 88 % 0 % 1018,5 hPa 0,0 l/m 4,4 km/h (1 Bft) 0 min 0 min 5,8 km/h (2 Bft)
25.12.2010 06:06 7,5 C -5,3 C 0,0 UV-I 0,0 C 43 % 88 % 0 % 1018,5 hPa 0,0 l/m 5,2 km/h (1 Bft) 0 min 0 min 9,0 km/h (2 Bft)
25.12.2010 06:08 7,5 C -5,3 C 0,0 UV-I 0,0 C 43 % 89 % 0 % 1018,5 hPa 0,0 l/m 6,4 km/h (2 Bft) 0 min 0 min 9,3 km/h (2 Bft)
25.12.2010 06:10 7,5 C -5,3 C 0,0 UV-I 0,0 C 43 % 89 % 0 % 1018,5 hPa 0,0 l/m 6,8 km/h (2 Bft) 0 min 0 min 5,5 km/h (1 Bft)
25.12.2010 06:12 7,5 C -5,5 C 0,0 UV-I 0,0 C 43 % 88 % 0 % 1018,5 hPa 0,0 l/m 6,4 km/h (2 Bft) 0 min 0 min 6,1 km/h (2 Bft)
25.12.2010 06:14 7,6 C -5,5 C 0,0 UV-I 0,0 C 43 % 88 % 0 % 1018,5 hPa 0,0 l/m 5,6 km/h (1 Bft) 0 min 0 min 7,4 km/h (2 Bft)
25.12.2010 06:16 7,5 C -5,5 C 0,0 UV-I 0,0 C 43 % 88 % 0 % 1018,5 hPa 0,0 l/m 5,2 km/h (1 Bft) 0 min 0 min 6,1 km/h (2 Bft)
25.12.2010 06:18 7,5 C -5,5 C 0,0 UV-I 0,0 C 43 % 88 % 0 % 1018,5 hPa 0,0 l/m 5,6 km/h (1 Bft) 0 min 0 min 10,0 km/h (2 Bft)
25.12.2010 06:20 7,5 C -5,5 C 0,0 UV-I 0,0 C 43 % 88 % 0 % 1018,5 hPa 0,0 l/m 5,6 km/h (1 Bft) 0 min 0 min 15,4 km/h (3 Bft)
25.12.2010 06:22 7,5 C -5,5 C 0,0 UV-I 0,0 C 43 % 88 % 0 % 1018,5 hPa 0,0 l/m 6,4 km/h (2 Bft) 0 min 0 min 9,3 km/h (2 Bft)
25.12.2010 06:24 7,6 C -5,5 C 0,0 UV-I 0,0 C 43 % 88 % 0 % 1018,5 hPa 0,0 l/m 6,4 km/h (2 Bft) 0 min 0 min 4,5 km/h (1 Bft)
25.12.2010 06:26 7,6 C -5,5 C 0,0 UV-I 0,0 C 43 % 88 % 0 % 1018,5 hPa 0,0 l/m 6,4 km/h (2 Bft) 0 min 0 min 7,1 km/h (2 Bft)
25.12.2010 06:28 7,6 C -5,6 C 0,0 UV-I 0,0 C 43 % 88 % 0 % 1018,5 hPa 0,0 l/m 6,4 km/h (2 Bft) 0 min 0 min 10,0 km/h (2 Bft)
25.12.2010 06:30 7,6 C -5,6 C 0,0 UV-I 0,0 C 43 % 88 % 0 % 1018,5 hPa 0,0 l/m 6,4 km/h (2 Bft) 0 min 0 min 8,7 km/h (2 Bft)
25.12.2010 06:32 7,6 C -5,6 C 0,0 UV-I 0,0 C 43 % 88 % 0 % 1018,5 hPa 0,0 l/m 5,6 km/h (1 Bft) 0 min 0 min 6,1 km/h (2 Bft)
25.12.2010 06:34 7,6 C -5,7 C 0,0 UV-I 0,0 C 43 % 88 % 0 % 1018,5 hPa 0,0 l/m 5,6 km/h (1 Bft) 0 min 0 min 11,3 km/h (2 Bft)
25.12.2010 06:36 7,6 C -5,5 C 0,0 UV-I 0,0 C 43 % 88 % 0 % 1018,5 hPa 0,0 l/m 6,4 km/h (2 Bft) 0 min 0 min 6,1 km/h (2 Bft)
25.12.2010 06:38 7,6 C -5,7 C 0,0 UV-I 0,0 C 43 % 88 % 0 % 1018,5 hPa 0,0 l/m 6,8 km/h (2 Bft) 0 min 0 min 6,8 km/h (2 Bft)
25.12.2010 06:40 7,6 C -5,7 C 0,0 UV-I 0,0 C 43 % 88 % 0 % 1018,5 hPa 0,0 l/m 7,6 km/h (2 Bft) 0 min 0 min 9,7 km/h (2 Bft)
25.12.2010 06:42 7,6 C -5,7 C 0,0 UV-I 0,0 C 43 % 88 % 0 % 1018,5 hPa 0,0 l/m 7,6 km/h (2 Bft) 0 min 0 min 8,0 km/h (2 Bft)
25.12.2010 06:44 7,6 C -5,7 C 0,0 UV-I 0,0 C 43 % 88 % 0 % 1018,5 hPa 0,0 l/m 7,6 km/h (2 Bft) 0 min 0 min 6,4 km/h (2 Bft)
25.12.2010 06:46 7,6 C -5,7 C 0,0 UV-I 0,0 C 43 % 89 % 0 % 1018,5 hPa 0,0 l/m 7,2 km/h (2 Bft) 0 min 0 min 8,0 km/h (2 Bft)
25.12.2010 06:48 7,6 C -5,7 C 0,0 UV-I 0,0 C 43 % 88 % 0 % 1018,5 hPa 0,0 l/m 6,0 km/h (2 Bft) 0 min 0 min 9,3 km/h (2 Bft)
25.12.2010 06:50 7,6 C -5,7 C 0,0 UV-I 0,0 C 43 % 89 % 0 % 1018,5 hPa 0,0 l/m 6,8 km/h (2 Bft) 0 min 0 min 8,0 km/h (2 Bft)
25.12.2010 06:52 7,6 C -5,7 C 0,0 UV-I 0,0 C 43 % 89 % 0 % 1018,5 hPa 0,0 l/m 6,8 km/h (2 Bft) 0 min 0 min 6,1 km/h (2 Bft)
25.12.2010 06:54 7,6 C -5,7 C 0,0 UV-I 0,0 C 43 % 89 % 0 % 1018,5 hPa 0,0 l/m 7,2 km/h (2 Bft) 0 min 0 min 10,3 km/h (2 Bft)
25.12.2010 06:56 7,6 C -5,7 C 0,0 UV-I 0,0 C 43 % 89 % 0 % 1018,5 hPa 0,0 l/m 7,2 km/h (2 Bft) 0 min 0 min 5,8 km/h (2 Bft)
25.12.2010 06:58 7,6 C -5,7 C 0,0 UV-I 0,0 C 43 % 89 % 0 % 1018,5 hPa 0,0 l/m 8,0 km/h (2 Bft) 0 min 0 min 7,4 km/h (2 Bft)
25.12.2010 07:00 7,6 C -5,8 C 0,0 UV-I 0,0 C 43 % 89 % 0 % 1018,5 hPa 0,0 l/m 8,4 km/h (2 Bft) 0 min 0 min 10,0 km/h (2 Bft)
25.12.2010 07:02 7,6 C -5,7 C 0,0 UV-I 0,0 C 43 % 89 % 0 % 1018,5 hPa 0,0 l/m 7,6 km/h (2 Bft) 0 min 0 min 8,0 km/h (2 Bft)
25.12.2010 07:04 7,6 C -5,7 C 0,0 UV-I 0,0 C 43 % 89 % 0 % 1018,5 hPa 0,0 l/m 8,0 km/h (2 Bft) 0 min 0 min 5,5 km/h (1 Bft)
25.12.2010 07:06 7,6 C -5,7 C 0,0 UV-I 0,0 C 43 % 89 % 0 % 1018,5 hPa 0,0 l/m 8,0 km/h (2 Bft) 0 min 0 min 5,5 km/h (1 Bft)
25.12.2010 07:08 7,6 C -5,7 C 0,0 UV-I 0,0 C 43 % 89 % 0 % 1018,5 hPa 0,0 l/m 8,0 km/h (2 Bft) 0 min 0 min 7,4 km/h (2 Bft)
25.12.2010 07:10 7,6 C -5,7 C 0,0 UV-I 0,0 C 43 % 89 % 0 % 1018,5 hPa 0,0 l/m 7,6 km/h (2 Bft) 0 min 0 min 11,3 km/h (2 Bft)
25.12.2010 07:12 7,6 C -5,7 C 0,0 UV-I 0,0 C 43 % 89 % 0 % 1018,5 hPa 0,0 l/m 7,6 km/h (2 Bft) 0 min 0 min 6,4 km/h (2 Bft)
25.12.2010 07:14 7,6 C -5,8 C 0,0 UV-I 0,0 C 43 % 89 % 0 % 1018,5 hPa 0,0 l/m 8,0 km/h (2 Bft) 0 min 0 min 9,3 km/h (2 Bft)
25.12.2010 07:16 7,6 C -5,7 C 0,0 UV-I 0,0 C 43 % 89 % 0 % 1018,5 hPa 0,0 l/m 8,8 km/h (2 Bft) 0 min 0 min 5,5 km/h (1 Bft)
25.12.2010 07:18 7,6 C -5,7 C 0,0 UV-I 0,0 C 43 % 89 % 0 % 1018,5 hPa 0,0 l/m 8,0 km/h (2 Bft) 0 min 0 min 4,2 km/h (1 Bft)
25.12.2010 07:20 7,6 C -5,7 C 0,0 UV-I 0,0 C 43 % 89 % 0 % 1018,5 hPa 0,0 l/m 8,4 km/h (2 Bft) 0 min 0 min 9,3 km/h (2 Bft)
25.12.2010 07:22 7,6 C -5,7 C 0,0 UV-I 0,0 C 43 % 89 % 0 % 1018,5 hPa 0,0 l/m 8,4 km/h (2 Bft) 0 min 0 min 10,0 km/h (2 Bft)
25.12.2010 07:24 7,6 C -5,7 C 0,0 UV-I 0,0 C 43 % 89 % 0 % 1018,5 hPa 0,0 l/m 7,2 km/h (2 Bft) 0 min 0 min 0,0 km/h (0 Bft)
25.12.2010 07:26 7,6 C -5,7 C 0,0 UV-I 0,0 C 43 % 89 % 0 % 1018,5 hPa 0,0 l/m 6,4 km/h (2 Bft) 0 min 0 min 5,8 km/h (2 Bft)
25.12.2010 07:28 7,6 C -5,7 C 0,0 UV-I 0,0 C 43 % 89 % 0 % 1018,5 hPa 0,0 l/m 6,0 km/h (2 Bft) 0 min 0 min 0,0 km/h (0 Bft)
25.12.2010 07:30 7,4 C -5,7 C 0,0 UV-I 0,0 C 43 % 89 % 0 % 1018,5 hPa 0,0 l/m 6,0 km/h (2 Bft) 0 min 0 min 6,8 km/h (2 Bft)
25.12.2010 07:32 7,6 C -5,7 C 0,0 UV-I 0,0 C 43 % 89 % 0 % 1018,5 hPa 0,0 l/m 5,6 km/h (1 Bft) 0 min 0 min 3,2 km/h (1 Bft)
25.12.2010 07:34 7,6 C -5,7 C 0,0 UV-I 0,0 C 43 % 89 % 0 % 1018,5 hPa 0,0 l/m 4,0 km/h (1 Bft) 0 min 0 min 6,4 km/h (2 Bft)
25.12.2010 07:36 7,6 C -5,9 C 0,0 UV-I 0,0 C 43 % 89 % 0 % 1018,5 hPa 0,0 l/m 4,4 km/h (1 Bft) 0 min 0 min 6,8 km/h (2 Bft)
25.12.2010 07:38 7,6 C -5,9 C 0,0 UV-I 0,0 C 43 % 89 % 0 % 1018,5 hPa 0,0 l/m 3,6 km/h (1 Bft) 0 min 0 min 0,0 km/h (0 Bft)
25.12.2010 07:40 7,6 C -5,9 C 0,0 UV-I 0,0 C 43 % 89 % 0 % 1018,5 hPa 0,0 l/m 4,0 km/h (1 Bft) 0 min 0 min 7,7 km/h (2 Bft)
25.12.2010 07:42 7,4 C -5,9 C 0,0 UV-I 0,0 C 43 % 89 % 0 % 1018,5 hPa 0,0 l/m 3,6 km/h (1 Bft) 0 min 0 min 10,0 km/h (2 Bft)
25.12.2010 07:44 7,4 C -5,9 C 0,0 UV-I 0,0 C 43 % 89 % 0 % 1018,5 hPa 0,0 l/m 4,4 km/h (1 Bft) 0 min 0 min 6,4 km/h (2 Bft)
25.12.2010 07:46 7,4 C -5,9 C 0,0 UV-I 0,0 C 43 % 89 % 0 % 1018,5 hPa 0,0 l/m 5,2 km/h (1 Bft) 0 min 0 min 6,8 km/h (2 Bft)
25.12.2010 07:48 7,6 C -5,9 C 0,0 UV-I 0,0 C 43 % 89 % 0 % 1018,5 hPa 0,0 l/m 5,6 km/h (1 Bft) 0 min 0 min 6,8 km/h (2 Bft)
25.12.2010 07:50 7,4 C -6,0 C 0,0 UV-I 0,0 C 43 % 89 % 0 % 1018,5 hPa 0,0 l/m 6,0 km/h (2 Bft) 0 min 0 min 3,9 km/h (1 Bft)
25.12.2010 07:52 7,6 C -6,0 C 0,0 UV-I 0,0 C 43 % 89 % 0 % 1018,5 hPa 0,0 l/m 6,4 km/h (2 Bft) 0 min 0 min 5,8 km/h (2 Bft)
25.12.2010 07:54 7,4 C -6,0 C 0,0 UV-I 0,0 C 43 % 89 % 0 % 1018,5 hPa 0,0 l/m 6,4 km/h (2 Bft) 0 min 0 min 6,8 km/h (2 Bft)
25.12.2010 07:56 7,4 C -6,0 C 0,0 UV-I 0,0 C 43 % 89 % 0 % 1018,5 hPa 0,0 l/m 6,4 km/h (2 Bft) 0 min 0 min 8,4 km/h (2 Bft)
25.12.2010 07:58 7,5 C -5,9 C 0,0 UV-I 0,0 C 43 % 89 % 0 % 1018,5 hPa 0,0 l/m 6,0 km/h (2 Bft) 0 min 0 min 3,2 km/h (1 Bft)
25.12.2010 08:00 7,5 C -6,1 C 0,0 UV-I 0,0 C 43 % 89 % 0 % 1018,5 hPa 0,0 l/m 5,2 km/h (1 Bft) 0 min 0 min 4,5 km/h (1 Bft)
25.12.2010 08:02 7,5 C -6,1 C 0,0 UV-I 0,0 C 43 % 89 % 0 % 1018,5 hPa 0,0 l/m 5,2 km/h (1 Bft) 0 min 0 min 4,5 km/h (1 Bft)
25.12.2010 08:04 7,4 C -6,1 C 0,0 UV-I 0,0 C 43 % 89 % 0 % 1018,5 hPa 0,0 l/m 6,0 km/h (2 Bft) 0 min 0 min 6,8 km/h (2 Bft)
25.12.2010 08:06 7,5 C -6,1 C 0,0 UV-I 0,0 C 43 % 89 % 0 % 1018,5 hPa 0,0 l/m 5,2 km/h (1 Bft) 0 min 0 min 3,9 km/h (1 Bft)
25.12.2010 08:08 7,5 C -6,1 C 0,0 UV-I 0,0 C 43 % 89 % 0 % 1018,5 hPa 0,0 l/m 5,2 km/h (1 Bft) 0 min 0 min 5,8 km/h (2 Bft)
25.12.2010 08:10 7,5 C -6,1 C 0,0 UV-I 0,0 C 43 % 89 % 0 % 1018,5 hPa 0,0 l/m 5,2 km/h (1 Bft) 0 min 0 min 6,1 km/h (2 Bft)
25.12.2010 08:12 7,5 C -6,1 C 0,0 UV-I 0,0 C 43 % 89 % 0 % 1018,5 hPa 0,0 l/m 5,2 km/h (1 Bft) 0 min 0 min 4,2 km/h (1 Bft)
25.12.2010 08:14 7,5 C -6,1 C 0,0 UV-I 0,0 C 43 % 89 % 0 % 1018,5 hPa 0,0 l/m 4,4 km/h (1 Bft) 0 min 0 min 0,0 km/h (0 Bft)
25.12.2010 08:16 7,5 C -6,1 C 0,0 UV-I 0,0 C 43 % 89 % 0 % 1018,5 hPa 0,0 l/m 3,6 km/h (1 Bft) 0 min 0 min 3,2 km/h (1 Bft)
25.12.2010 08:18 7,5 C -6,1 C 0,0 UV-I 0,0 C 43 % 89 % 0 % 1018,5 hPa 0,0 l/m 3,2 km/h (1 Bft) 0 min 0 min 0,0 km/h (0 Bft)
25.12.2010 08:20 7,5 C -6,1 C 0,0 UV-I 0,0 C 43 % 89 % 0 % 1018,5 hPa 0,0 l/m 1,6 km/h (1 Bft) 0 min 0 min 0,0 km/h (0 Bft)
25.12.2010 08:22 7,5 C -6,1 C 0,0 UV-I 0,0 C 43 % 89 % 0 % 1018,5 hPa 0,0 l/m 2,0 km/h (1 Bft) 0 min 0 min 5,8 km/h (2 Bft)
25.12.2010 08:24 7,5 C -6,1 C 0,0 UV-I 0,0 C 43 % 89 % 0 % 1018,5 hPa 0,0 l/m 2,4 km/h (1 Bft) 0 min 0 min 5,5 km/h (1 Bft)
25.12.2010 08:26 7,5 C -6,1 C 0,0 UV-I 0,0 C 43 % 89 % 0 % 1018,5 hPa 0,0 l/m 2,8 km/h (1 Bft) 0 min 0 min 0,0 km/h (0 Bft)
25.12.2010 08:28 7,3 C -6,1 C 0,0 UV-I 0,0 C 42 % 90 % 0 % 1018,5 hPa 0,0 l/m 2,8 km/h (1 Bft) 0 min 0 min 3,9 km/h (1 Bft)
25.12.2010 08:30 7,5 C -6,3 C 0,0 UV-I 0,0 C 43 % 89 % 0 % 1018,5 hPa 0,0 l/m 4,0 km/h (1 Bft) 0 min 0 min 8,0 km/h (2 Bft)
25.12.2010 08:32 7,5 C -6,3 C 0,0 UV-I 0,0 C 42 % 90 % 0 % 1018,5 hPa 0,0 l/m 4,0 km/h (1 Bft) 0 min 0 min 3,5 km/h (1 Bft)
25.12.2010 08:34 7,3 C -6,1 C 0,0 UV-I 0,0 C 43 % 90 % 0 % 1018,5 hPa 0,0 l/m 4,0 km/h (1 Bft) 0 min 0 min 5,8 km/h (2 Bft)
25.12.2010 08:36 7,3 C -6,1 C 0,0 UV-I 0,0 C 42 % 90 % 0 % 1018,5 hPa 0,0 l/m 4,4 km/h (1 Bft) 0 min 0 min 5,8 km/h (2 Bft)
25.12.2010 08:38 7,3 C -6,3 C 0,0 UV-I 0,0 C 42 % 90 % 0 % 1018,5 hPa 0,0 l/m 4,8 km/h (1 Bft) 0 min 0 min 6,8 km/h (2 Bft)
25.12.2010 08:40 7,4 C -6,3 C 0,0 UV-I 0,0 C 42 % 90 % 0 % 1018,5 hPa 0,0 l/m 4,8 km/h (1 Bft) 0 min 0 min 0,0 km/h (0 Bft)
25.12.2010 08:42 7,3 C -6,3 C 0,0 UV-I 0,0 C 42 % 90 % 0 % 1018,5 hPa 0,0 l/m 4,4 km/h (1 Bft) 0 min 0 min 4,2 km/h (1 Bft)
25.12.2010 08:44 7,4 C -6,3 C 0,0 UV-I 0,0 C 43 % 90 % 0 % 1018,5 hPa 0,0 l/m 4,4 km/h (1 Bft) 0 min 0 min 3,5 km/h (1 Bft)
25.12.2010 08:46 7,4 C -6,3 C 0,0 UV-I 0,0 C 42 % 90 % 0 % 1018,5 hPa 0,0 l/m 4,0 km/h (1 Bft) 0 min 0 min 6,1 km/h (2 Bft)
25.12.2010 08:48 7,4 C -6,3 C 0,0 UV-I 0,0 C 43 % 90 % 0 % 1018,5 hPa 0,0 l/m 3,6 km/h (1 Bft) 0 min 0 min 5,5 km/h (1 Bft)
25.12.2010 08:50 7,4 C -6,4 C 0,0 UV-I 0,0 C 43 % 90 % 0 % 1018,5 hPa 0,0 l/m 2,8 km/h (1 Bft) 0 min 0 min 5,1 km/h (1 Bft)
25.12.2010 08:52 7,4 C -6,4 C 0,0 UV-I 0,0 C 43 % 90 % 0 % 1018,5 hPa 0,0 l/m 4,4 km/h (1 Bft) 0 min 0 min 8,0 km/h (2 Bft)
25.12.2010 08:54 7,4 C -6,4 C 0,0 UV-I 0,0 C 43 % 90 % 0 % 1018,5 hPa 0,0 l/m 4,4 km/h (1 Bft) 0 min 0 min 0,0 km/h (0 Bft)
25.12.2010 08:56 7,4 C -6,3 C 0,0 UV-I 0,0 C 43 % 90 % 0 % 1018,5 hPa 0,0 l/m 4,4 km/h (1 Bft) 0 min 0 min 5,8 km/h (2 Bft)
25.12.2010 08:58 7,4 C -6,5 C 0,0 UV-I 0,0 C 42 % 90 % 0 % 1018,5 hPa 0,0 l/m 4,0 km/h (1 Bft) 0 min 0 min 0,0 km/h (0 Bft)
25.12.2010 09:00 7,4 C -6,5 C 0,0 UV-I 0,0 C 42 % 90 % 0 % 1018,5 hPa 0,0 l/m 3,6 km/h (1 Bft) 0 min 0 min 5,5 km/h (1 Bft)
25.12.2010 09:02 7,4 C -6,5 C 0,0 UV-I 0,0 C 43 % 90 % 0 % 1018,5 hPa 0,0 l/m 2,8 km/h (1 Bft) 0 min 0 min 0,0 km/h (0 Bft)
25.12.2010 09:04 7,4 C -6,5 C 0,0 UV-I 0,0 C 43 % 90 % 0 % 1018,5 hPa 0,0 l/m 1,6 km/h (1 Bft) 0 min 0 min 0,0 km/h (0 Bft)
25.12.2010 09:06 7,4 C -6,5 C 0,0 UV-I 0,0 C 43 % 90 % 0 % 1018,5 hPa 0,0 l/m 1,6 km/h (1 Bft) 0 min 0 min 5,8 km/h (2 Bft)
25.12.2010 09:08 7,4 C -6,5 C 0,0 UV-I 0,0 C 42 % 90 % 0 % 1018,5 hPa 0,0 l/m 1,6 km/h (1 Bft) 0 min 0 min 4,2 km/h (1 Bft)
25.12.2010 09:10 7,4 C -6,5 C 0,0 UV-I 0,0 C 42 % 90 % 0 % 1018,5 hPa 0,0 l/m 1,6 km/h (1 Bft) 0 min 0 min 0,0 km/h (0 Bft)
25.12.2010 09:12 7,4 C -6,5 C 0,0 UV-I 0,0 C 42 % 90 % 0 % 1018,5 hPa 0,0 l/m 1,6 km/h (1 Bft) 0 min 0 min 0,0 km/h (0 Bft)
25.12.2010 09:14 7,4 C -6,5 C 0,0 UV-I 0,0 C 42 % 90 % 0 % 1018,5 hPa 0,0 l/m 1,2 km/h (1 Bft) 0 min 0 min 0,0 km/h (0 Bft)
25.12.2010 09:16 7,4 C -6,5 C 0,0 UV-I 0,0 C 42 % 90 % 0 % 1018,5 hPa 0,0 l/m 1,2 km/h (1 Bft) 0 min 0 min 0,0 km/h (0 Bft)
25.12.2010 09:18 7,4 C -6,5 C 0,0 UV-I 0,0 C 42 % 90 % 0 % 1018,5 hPa 0,0 l/m 0,8 km/h (0 Bft) 0 min 0 min 0,0 km/h (0 Bft)
25.12.2010 09:20 7,4 C -6,5 C 0,0 UV-I 0,0 C 42 % 90 % 0 % 1018,5 hPa 0,0 l/m 0,4 km/h (0 Bft) 0 min 0 min 0,0 km/h (0 Bft)
25.12.2010 09:22 7,4 C -6,6 C 0,0 UV-I 0,0 C 42 % 89 % 0 % 1018,5 hPa 0,0 l/m 0,4 km/h (0 Bft) 0 min 0 min 0,0 km/h (0 Bft)
25.12.2010 09:24 7,4 C -6,5 C 0,0 UV-I 0,0 C 42 % 90 % 0 % 1018,5 hPa 0,0 l/m 0,4 km/h (0 Bft) 0 min 0 min 0,0 km/h (0 Bft)
25.12.2010 09:26 7,4 C -6,5 C 0,0 UV-I 0,0 C 42 % 90 % 0 % 1022,4 hPa 0,0 l/m 0,4 km/h (0 Bft) 0 min 0 min 0,0 km/h (0 Bft)
25.12.2010 09:28 7,4 C -6,5 C 0,0 UV-I 0,0 C 42 % 90 % 0 % 1022,4 hPa 0,0 l/m 0,8 km/h (0 Bft) 0 min 0 min 5,5 km/h (1 Bft)
25.12.2010 09:30 7,4 C -6,5 C 0,0 UV-I 0,0 C 42 % 90 % 0 % 1022,4 hPa 0,0 l/m 0,8 km/h (0 Bft) 0 min 0 min 3,2 km/h (1 Bft)
25.12.2010 09:32 7,4 C -6,5 C 0,0 UV-I 0,0 C 42 % 90 % 0 % 1022,4 hPa 0,0 l/m 0,4 km/h (0 Bft) 0 min 0 min 0,0 km/h (0 Bft)
25.12.2010 09:34 7,4 C -6,5 C 0,0 UV-I 0,0 C 42 % 90 % 0 % 1022,4 hPa 0,0 l/m 0,8 km/h (0 Bft) 0 min 0 min 6,1 km/h (2 Bft)
25.12.2010 09:36 7,4 C -6,5 C 0,0 UV-I 0,0 C 42 % 90 % 0 % 1022,4 hPa 0,0 l/m 1,2 km/h (1 Bft) 0 min 0 min 3,2 km/h (1 Bft)
25.12.2010 09:38 7,4 C -6,5 C 0,0 UV-I 0,0 C 42 % 90 % 0 % 1022,4 hPa 0,0 l/m 1,2 km/h (1 Bft) 0 min 0 min 0,0 km/h (0 Bft)
25.12.2010 09:40 7,4 C -6,5 C 0,0 UV-I 0,0 C 42 % 90 % 0 % 1022,4 hPa 0,0 l/m 1,6 km/h (1 Bft) 0 min 0 min 3,5 km/h (1 Bft)
25.12.2010 09:42 7,4 C -6,5 C 0,0 UV-I 0,0 C 42 % 90 % 0 % 1022,4 hPa 0,0 l/m 1,2 km/h (1 Bft) 0 min 0 min 0,0 km/h (0 Bft)
25.12.2010 09:44 7,4 C -6,4 C 0,0 UV-I 0,0 C 42 % 90 % 0 % 1022,4 hPa 0,0 l/m 1,6 km/h (1 Bft) 0 min 0 min 0,0 km/h (0 Bft)
25.12.2010 09:46 7,4 C -6,4 C 0,0 UV-I 0,0 C 42 % 90 % 0 % 1022,4 hPa 0,0 l/m 1,2 km/h (1 Bft) 0 min 0 min 0,0 km/h (0 Bft)
25.12.2010 09:48 7,4 C -6,4 C 0,0 UV-I 0,0 C 42 % 90 % 0 % 1022,4 hPa 0,0 l/m 1,6 km/h (1 Bft) 0 min 0 min 5,5 km/h (1 Bft)
25.12.2010 09:50 7,4 C -6,4 C 0,0 UV-I 0,0 C 42 % 90 % 0 % 1022,4 hPa 0,0 l/m 1,6 km/h (1 Bft) 0 min 0 min 4,5 km/h (1 Bft)
25.12.2010 09:52 7,4 C -6,4 C 0,0 UV-I 0,0 C 42 % 90 % 0 % 1022,4 hPa 0,0 l/m 1,2 km/h (1 Bft) 0 min 0 min 0,0 km/h (0 Bft)
25.12.2010 09:54 7,4 C -6,4 C 0,0 UV-I 0,0 C 42 % 90 % 0 % 1022,4 hPa 0,0 l/m 2,0 km/h (1 Bft) 0 min 0 min 3,5 km/h (1 Bft)
25.12.2010 09:56 7,4 C -6,4 C 0,0 UV-I 0,0 C 42 % 90 % 0 % 1022,4 hPa 0,0 l/m 2,0 km/h (1 Bft) 0 min 0 min 0,0 km/h (0 Bft)
25.12.2010 09:58 7,4 C -6,4 C 0,0 UV-I 0,0 C 42 % 90 % 0 % 1022,4 hPa 0,0 l/m 2,0 km/h (1 Bft) 0 min 0 min 7,4 km/h (2 Bft)
25.12.2010 10:00 7,4 C -6,3 C 0,0 UV-I 0,0 C 42 % 90 % 0 % 1022,4 hPa 0,0 l/m 2,4 km/h (1 Bft) 0 min 0 min 5,5 km/h (1 Bft)
25.12.2010 10:02 7,4 C -6,3 C 0,0 UV-I 0,0 C 42 % 90 % 0 % 1022,4 hPa 0,0 l/m 2,4 km/h (1 Bft) 0 min 0 min 5,1 km/h (1 Bft)
25.12.2010 10:04 7,3 C -6,3 C 0,0 UV-I 0,0 C 42 % 90 % 0 % 1022,4 hPa 0,0 l/m 2,0 km/h (1 Bft) 0 min 0 min 6,1 km/h (2 Bft)
25.12.2010 10:06 7,3 C -6,3 C 0,0 UV-I 0,0 C 42 % 90 % 0 % 1022,4 hPa 0,0 l/m 1,6 km/h (1 Bft) 0 min 0 min 0,0 km/h (0 Bft)
25.12.2010 10:08 7,5 C -6,3 C 0,0 UV-I 0,1 C 42 % 90 % 3 % 1022,4 hPa 0,0 l/m 1,6 km/h (1 Bft) 0 min 0 min 0,0 km/h (0 Bft)
25.12.2010 10:10 7,5 C -6,1 C 0,0 UV-I 0,0 C 42 % 90 % 0 % 1022,4 hPa 0,0 l/m 1,2 km/h (1 Bft) 0 min 0 min 0,0 km/h (0 Bft)
25.12.2010 10:12 7,5 C -6,1 C 0,0 UV-I 0,1 C 42 % 90 % 3 % 1022,4 hPa 0,0 l/m 0,8 km/h (0 Bft) 0 min 0 min 0,0 km/h (0 Bft)
25.12.2010 10:14 7,5 C -6,1 C 0,0 UV-I 0,2 C 42 % 90 % 6 % 1022,4 hPa 0,0 l/m 1,2 km/h (1 Bft) 0 min 0 min 6,1 km/h (2 Bft)
25.12.2010 10:16 7,5 C -6,1 C 0,0 UV-I 0,2 C 42 % 90 % 6 % 1022,4 hPa 0,0 l/m 2,0 km/h (1 Bft) 0 min 0 min 4,5 km/h (1 Bft)
25.12.2010 10:18 7,5 C -6,1 C 0,0 UV-I 0,3 C 42 % 90 % 9 % 1022,4 hPa 0,0 l/m 2,0 km/h (1 Bft) 0 min 0 min 3,2 km/h (1 Bft)
25.12.2010 10:20 7,5 C -6,1 C 0,0 UV-I 0,4 C 42 % 90 % 11 % 1022,4 hPa 0,0 l/m 2,0 km/h (1 Bft) 0 min 0 min 5,1 km/h (1 Bft)
25.12.2010 10:22 7,4 C -6,1 C 0,0 UV-I 0,5 C 42 % 90 % 14 % 1022,4 hPa 0,0 l/m 2,8 km/h (1 Bft) 0 min 0 min 3,5 km/h (1 Bft)
25.12.2010 10:24 7,4 C -6,1 C 0,0 UV-I 0,5 C 42 % 90 % 14 % 1022,4 hPa 0,0 l/m 2,8 km/h (1 Bft) 0 min 0 min 0,0 km/h (0 Bft)
25.12.2010 10:26 7,4 C -5,9 C 0,0 UV-I 0,4 C 42 % 90 % 11 % 1022,4 hPa 0,0 l/m 2,8 km/h (1 Bft) 0 min 0 min 3,2 km/h (1 Bft)
25.12.2010 10:28 7,6 C -6,0 C 0,0 UV-I 0,6 C 42 % 90 % 17 % 1022,4 hPa 0,0 l/m 2,4 km/h (1 Bft) 0 min 0 min 5,8 km/h (2 Bft)
25.12.2010 10:30 7,6 C -6,0 C 0,0 UV-I 0,7 C 42 % 90 % 20 % 1022,4 hPa 0,0 l/m 2,8 km/h (1 Bft) 0 min 0 min 0,0 km/h (0 Bft)
25.12.2010 10:32 7,6 C -6,0 C 0,0 UV-I 0,8 C 42 % 90 % 23 % 1022,4 hPa 0,0 l/m 2,4 km/h (1 Bft) 0 min 0 min 0,0 km/h (0 Bft)
25.12.2010 10:34 7,6 C -5,9 C 0,0 UV-I 0,7 C 42 % 90 % 20 % 1022,4 hPa 0,0 l/m 2,0 km/h (1 Bft) 0 min 0 min 0,0 km/h (0 Bft)
25.12.2010 10:36 7,6 C -5,9 C 0,0 UV-I 0,7 C 42 % 90 % 20 % 1022,4 hPa 0,0 l/m 1,6 km/h (1 Bft) 0 min 0 min 0,0 km/h (0 Bft)
25.12.2010 10:38 7,6 C -5,9 C 0,0 UV-I 0,7 C 42 % 90 % 20 % 1022,4 hPa 0,0 l/m 1,6 km/h (1 Bft) 0 min 0 min 0,0 km/h (0 Bft)
25.12.2010 10:40 7,5 C -5,7 C 0,0 UV-I 0,5 C 42 % 90 % 14 % 1022,4 hPa 0,0 l/m 0,8 km/h (0 Bft) 0 min 0 min 0,0 km/h (0 Bft)
25.12.2010 10:42 7,5 C -5,7 C 0,0 UV-I 0,5 C 42 % 90 % 14 % 1022,4 hPa 0,0 l/m 0,4 km/h (0 Bft) 0 min 0 min 0,0 km/h (0 Bft)
25.12.2010 10:44 7,5 C -5,9 C 0,0 UV-I 0,7 C 42 % 90 % 20 % 1022,4 hPa 0,0 l/m 0,4 km/h (0 Bft) 0 min 0 min 0,0 km/h (0 Bft)
25.12.2010 10:46 7,5 C -5,7 C 0,0 UV-I 0,5 C 42 % 90 % 14 % 1022,4 hPa 0,0 l/m 0,8 km/h (0 Bft) 0 min 0 min 7,4 km/h (2 Bft)
25.12.2010 10:48 7,5 C -5,7 C 0,0 UV-I 0,5 C 42 % 90 % 14 % 1022,4 hPa 0,0 l/m 0,8 km/h (0 Bft) 0 min 0 min 0,0 km/h (0 Bft)
25.12.2010 10:50 7,5 C -5,7 C 0,0 UV-I 0,4 C 42 % 90 % 11 % 1022,4 hPa 0,0 l/m 0,8 km/h (0 Bft) 0 min 0 min 0,0 km/h (0 Bft)
25.12.2010 10:52 7,5 C -5,8 C 0,0 UV-I 0,5 C 42 % 90 % 14 % 1022,4 hPa 0,0 l/m 2,0 km/h (1 Bft) 0 min 0 min 5,1 km/h (1 Bft)
25.12.2010 10:54 7,5 C -5,7 C 0,0 UV-I 0,4 C 42 % 90 % 11 % 1022,4 hPa 0,0 l/m 2,8 km/h (1 Bft) 0 min 0 min 0,0 km/h (0 Bft)
25.12.2010 10:56 7,5 C -5,7 C 0,0 UV-I 0,4 C 42 % 90 % 11 % 1022,4 hPa 0,0 l/m 2,4 km/h (1 Bft) 0 min 0 min 0,0 km/h (0 Bft)
25.12.2010 10:58 7,5 C -5,7 C 0,0 UV-I 0,5 C 42 % 90 % 14 % 1022,4 hPa 0,0 l/m 2,0 km/h (1 Bft) 0 min 0 min 0,0 km/h (0 Bft)
25.12.2010 11:00 7,5 C -5,7 C 0,0 UV-I 0,5 C 42 % 90 % 14 % 1022,4 hPa 0,0 l/m 2,4 km/h (1 Bft) 0 min 0 min 3,2 km/h (1 Bft)
25.12.2010 11:02 7,7 C -5,7 C 0,0 UV-I 0,6 C 42 % 90 % 17 % 1022,4 hPa 0,0 l/m 2,0 km/h (1 Bft) 0 min 0 min 0,0 km/h (0 Bft)
25.12.2010 11:04 7,6 C -5,7 C 0,0 UV-I 0,7 C 42 % 90 % 20 % 1022,4 hPa 0,0 l/m 1,2 km/h (1 Bft) 0 min 0 min 0,0 km/h (0 Bft)
25.12.2010 11:06 7,6 C -5,7 C 0,0 UV-I 0,7 C 42 % 90 % 20 % 1022,4 hPa 0,0 l/m 1,2 km/h (1 Bft) 0 min 0 min 0,0 km/h (0 Bft)
25.12.2010 11:08 7,6 C -5,7 C 0,0 UV-I 0,7 C 42 % 90 % 20 % 1022,4 hPa 0,0 l/m 1,2 km/h (1 Bft) 0 min 0 min 0,0 km/h (0 Bft)
25.12.2010 11:10 7,6 C -5,6 C 0,0 UV-I 0,7 C 42 % 90 % 20 % 1022,4 hPa 0,0 l/m 1,2 km/h (1 Bft) 0 min 0 min 3,5 km/h (1 Bft)
25.12.2010 11:12 7,6 C -5,6 C 0,0 UV-I 0,7 C 42 % 90 % 20 % 1022,4 hPa 0,0 l/m 0,8 km/h (0 Bft) 0 min 0 min 0,0 km/h (0 Bft)
25.12.2010 11:14 7,6 C -5,6 C 0,0 UV-I 0,8 C 42 % 90 % 23 % 1022,4 hPa 0,0 l/m 1,2 km/h (1 Bft) 0 min 0 min 4,8 km/h (1 Bft)
25.12.2010 11:16 7,8 C -5,6 C 0,0 UV-I 0,8 C 42 % 90 % 23 % 1022,4 hPa 0,0 l/m 1,6 km/h (1 Bft) 0 min 0 min 6,1 km/h (2 Bft)
25.12.2010 11:18 7,8 C -5,6 C 0,0 UV-I 0,8 C 42 % 90 % 23 % 1022,4 hPa 0,0 l/m 2,4 km/h (1 Bft) 0 min 0 min 0,0 km/h (0 Bft)
25.12.2010 11:20 7,8 C -5,6 C 0,0 UV-I 0,9 C 42 % 90 % 26 % 1022,4 hPa 0,0 l/m 2,4 km/h (1 Bft) 0 min 0 min 0,0 km/h (0 Bft)
25.12.2010 11:22 7,8 C -5,6 C 0,0 UV-I 1,0 C 42 % 90 % 29 % 1022,4 hPa 0,0 l/m 2,0 km/h (1 Bft) 0 min 0 min 0,0 km/h (0 Bft)
25.12.2010 11:24 7,8 C -5,5 C 0,0 UV-I 1,0 C 42 % 90 % 29 % 1022,4 hPa 0,0 l/m 2,0 km/h (1 Bft) 0 min 0 min 0,0 km/h (0 Bft)
25.12.2010 11:26 7,8 C -5,5 C 0,0 UV-I 1,1 C 42 % 90 % 31 % 1022,4 hPa 0,0 l/m 1,2 km/h (1 Bft) 0 min 0 min 0,0 km/h (0 Bft)
25.12.2010 11:28 7,8 C -5,3 C 0,0 UV-I 1,1 C 42 % 90 % 31 % 1022,4 hPa 0,0 l/m 0,8 km/h (0 Bft) 0 min 0 min 3,5 km/h (1 Bft)
25.12.2010 11:30 7,8 C -5,3 C 0,0 UV-I 1,1 C 42 % 90 % 31 % 1022,4 hPa 0,0 l/m 0,8 km/h (0 Bft) 0 min 0 min 0,0 km/h (0 Bft)
25.12.2010 11:32 7,8 C -5,3 C 0,0 UV-I 1,2 C 42 % 90 % 34 % 1022,4 hPa 0,0 l/m 0,8 km/h (0 Bft) 0 min 0 min 5,5 km/h (1 Bft)
25.12.2010 11:34 7,9 C -5,3 C 0,0 UV-I 1,2 C 42 % 90 % 34 % 1022,4 hPa 0,0 l/m 0,8 km/h (0 Bft) 0 min 0 min 0,0 km/h (0 Bft)
25.12.2010 11:36 7,8 C -5,3 C 0,0 UV-I 1,3 C 42 % 90 % 37 % 1022,4 hPa 0,0 l/m 0,8 km/h (0 Bft) 0 min 0 min 0,0 km/h (0 Bft)
25.12.2010 11:38 7,9 C -5,4 C 0,0 UV-I 1,5 C 42 % 90 % 43 % 1022,4 hPa 0,0 l/m 1,2 km/h (1 Bft) 0 min 0 min 0,0 km/h (0 Bft)
25.12.2010 11:40 7,9 C -5,3 C 0,0 UV-I 1,5 C 42 % 90 % 43 % 1022,4 hPa 0,0 l/m 0,8 km/h (0 Bft) 0 min 0 min 0,0 km/h (0 Bft)
25.12.2010 11:42 7,9 C -5,3 C 0,0 UV-I 1,7 C 42 % 90 % 49 % 1022,4 hPa 0,0 l/m 0,8 km/h (0 Bft) 0 min 0 min 0,0 km/h (0 Bft)
25.12.2010 11:44 7,9 C -5,1 C 0,0 UV-I 1,6 C 42 % 90 % 46 % 1022,4 hPa 0,0 l/m 0,8 km/h (0 Bft) 0 min 0 min 0,0 km/h (0 Bft)
25.12.2010 11:46 7,9 C -5,1 C 0,0 UV-I 1,7 C 42 % 90 % 49 % 1022,4 hPa 0,0 l/m 0,8 km/h (0 Bft) 0 min 0 min 0,0 km/h (0 Bft)
25.12.2010 11:48 7,8 C -5,2 C 0,0 UV-I 1,8 C 42 % 90 % 51 % 1022,4 hPa 0,0 l/m 0,8 km/h (0 Bft) 0 min 0 min 4,2 km/h (1 Bft)
25.12.2010 11:50 8,0 C -5,2 C 0,0 UV-I 1,9 C 42 % 90 % 54 % 1022,4 hPa 0,0 l/m 0,8 km/h (0 Bft) 0 min 0 min 0,0 km/h (0 Bft)
25.12.2010 11:52 8,0 C -5,1 C 0,0 UV-I 1,9 C 42 % 90 % 54 % 1022,4 hPa 0,0 l/m 0,8 km/h (0 Bft) 0 min 0 min 0,0 km/h (0 Bft)
25.12.2010 11:54 8,0 C -5,1 C 0,0 UV-I 1,9 C 42 % 90 % 54 % 1022,4 hPa 0,0 l/m 1,2 km/h (1 Bft) 0 min 0 min 7,1 km/h (2 Bft)
25.12.2010 11:56 8,0 C -4,9 C 0,0 UV-I 1,7 C 42 % 90 % 49 % 1022,4 hPa 0,0 l/m 1,6 km/h (1 Bft) 0 min 0 min 6,8 km/h (2 Bft)
25.12.2010 11:58 8,0 C -4,9 C 0,0 UV-I 1,7 C 42 % 90 % 49 % 1022,4 hPa 0,0 l/m 2,4 km/h (1 Bft) 0 min 0 min 4,5 km/h (1 Bft)
25.12.2010 12:00 8,0 C -4,9 C 0,0 UV-I 1,7 C 42 % 89 % 49 % 1022,4 hPa 0,0 l/m 2,4 km/h (1 Bft) 0 min 0 min 3,9 km/h (1 Bft)
25.12.2010 12:02 8,0 C -4,9 C 0,0 UV-I 1,7 C 42 % 90 % 49 % 1022,4 hPa 0,0 l/m 3,2 km/h (1 Bft) 0 min 0 min 7,7 km/h (2 Bft)
25.12.2010 12:04 8,0 C -4,9 C 0,0 UV-I 1,7 C 42 % 90 % 49 % 1022,4 hPa 0,0 l/m 3,2 km/h (1 Bft) 0 min 0 min 7,7 km/h (2 Bft)
25.12.2010 12:06 7,9 C -4,9 C 0,0 UV-I 1,8 C 42 % 89 % 51 % 1022,4 hPa 0,0 l/m 3,6 km/h (1 Bft) 0 min 0 min 3,2 km/h (1 Bft)
25.12.2010 12:08 7,9 C -5,0 C 0,0 UV-I 2,0 C 42 % 89 % 57 % 1022,4 hPa 0,0 l/m 2,8 km/h (1 Bft) 0 min 0 min 0,0 km/h (0 Bft)
25.12.2010 12:10 7,9 C -4,9 C 0,0 UV-I 1,9 C 42 % 89 % 54 % 1022,4 hPa 0,0 l/m 2,4 km/h (1 Bft) 0 min 0 min 0,0 km/h (0 Bft)
25.12.2010 12:12 7,9 C -4,9 C 0,0 UV-I 2,1 C 42 % 89 % 60 % 1022,4 hPa 0,0 l/m 2,4 km/h (1 Bft) 0 min 0 min 0,0 km/h (0 Bft)
25.12.2010 12:14 7,9 C -4,9 C 0,0 UV-I 2,1 C 42 % 89 % 60 % 1022,4 hPa 0,0 l/m 2,0 km/h (1 Bft) 0 min 0 min 3,2 km/h (1 Bft)
25.12.2010 12:16 8,1 C -4,9 C 0,0 UV-I 2,2 C 42 % 89 % 63 % 1022,4 hPa 0,0 l/m 1,6 km/h (1 Bft) 0 min 0 min 4,8 km/h (1 Bft)
25.12.2010 12:18 8,1 C -4,9 C 0,0 UV-I 2,2 C 42 % 89 % 63 % 1022,4 hPa 0,0 l/m 2,4 km/h (1 Bft) 0 min 0 min 6,4 km/h (2 Bft)
25.12.2010 12:20 8,1 C -4,9 C 0,0 UV-I 2,2 C 42 % 89 % 63 % 1022,4 hPa 0,0 l/m 2,8 km/h (1 Bft) 0 min 0 min 3,5 km/h (1 Bft)
25.12.2010 12:22 8,1 C -4,9 C 0,0 UV-I 2,3 C 42 % 89 % 66 % 1022,4 hPa 0,0 l/m 3,6 km/h (1 Bft) 2 min 0 min 3,5 km/h (1 Bft)
25.12.2010 12:24 8,1 C -4,9 C 0,0 UV-I 2,3 C 42 % 89 % 66 % 1022,4 hPa 0,0 l/m 3,6 km/h (1 Bft) 2 min 0 min 0,0 km/h (0 Bft)
25.12.2010 12:26 8,1 C -4,8 C 0,0 UV-I 2,3 C 42 % 89 % 66 % 1024,8 hPa 0,0 l/m 3,6 km/h (1 Bft) 2 min 0 min 0,0 km/h (0 Bft)
25.12.2010 12:28 8,2 C -4,7 C 0,0 UV-I 2,2 C 42 % 89 % 63 % 1024,8 hPa 0,0 l/m 3,2 km/h (1 Bft) 0 min 0 min 5,8 km/h (2 Bft)
25.12.2010 12:30 8,2 C -4,8 C 0,0 UV-I 2,4 C 42 % 89 % 69 % 1024,8 hPa 0,0 l/m 2,8 km/h (1 Bft) 2 min 0 min 3,9 km/h (1 Bft)
25.12.2010 12:32 8,2 C -4,8 C 0,0 UV-I 2,4 C 42 % 89 % 69 % 1024,8 hPa 0,0 l/m 2,8 km/h (1 Bft) 2 min 0 min 3,5 km/h (1 Bft)
25.12.2010 12:34 8,2 C -4,7 C 0,0 UV-I 2,4 C 42 % 89 % 69 % 1024,8 hPa 0,0 l/m 2,4 km/h (1 Bft) 2 min 0 min 6,1 km/h (2 Bft)
25.12.2010 12:36 8,2 C -4,8 C 0,0 UV-I 2,6 C 42 % 89 % 74 % 1024,8 hPa 0,0 l/m 3,2 km/h (1 Bft) 2 min 0 min 3,9 km/h (1 Bft)
25.12.2010 12:38 8,2 C -4,7 C 0,0 UV-I 2,5 C 42 % 89 % 71 % 1024,8 hPa 0,0 l/m 3,2 km/h (1 Bft) 2 min 0 min 0,0 km/h (0 Bft)
25.12.2010 12:40 8,2 C -4,7 C 0,0 UV-I 2,6 C 42 % 89 % 74 % 1024,8 hPa 0,0 l/m 2,4 km/h (1 Bft) 2 min 0 min 0,0 km/h (0 Bft)
25.12.2010 12:42 8,2 C -4,7 C 0,0 UV-I 2,7 C 42 % 89 % 77 % 1024,8 hPa 0,0 l/m 1,6 km/h (1 Bft) 2 min 0 min 0,0 km/h (0 Bft)
25.12.2010 12:44 8,1 C -4,6 C 0,0 UV-I 2,7 C 42 % 89 % 77 % 1024,8 hPa 0,0 l/m 1,2 km/h (1 Bft) 2 min 0 min 0,0 km/h (0 Bft)
25.12.2010 12:46 8,1 C -4,5 C 0,0 UV-I 2,7 C 42 % 89 % 77 % 1024,8 hPa 0,0 l/m 0,8 km/h (0 Bft) 2 min 0 min 3,5 km/h (1 Bft)
25.12.2010 12:48 8,1 C -4,5 C 0,0 UV-I 2,7 C 42 % 89 % 77 % 1024,8 hPa 0,0 l/m 0,8 km/h (0 Bft) 2 min 0 min 0,0 km/h (0 Bft)
25.12.2010 12:50 8,3 C -4,5 C 0,0 UV-I 2,7 C 42 % 89 % 77 % 1024,8 hPa 0,0 l/m 0,8 km/h (0 Bft) 2 min 0 min 3,5 km/h (1 Bft)
25.12.2010 12:52 8,3 C -4,5 C 0,0 UV-I 2,6 C 42 % 89 % 74 % 1024,8 hPa 0,0 l/m 0,8 km/h (0 Bft) 2 min 0 min 0,0 km/h (0 Bft)
25.12.2010 12:54 8,3 C -4,5 C 0,0 UV-I 2,7 C 42 % 89 % 77 % 1024,8 hPa 0,0 l/m 1,6 km/h (1 Bft) 2 min 0 min 3,9 km/h (1 Bft)
25.12.2010 12:56 8,3 C -4,5 C 0,0 UV-I 2,7 C 42 % 89 % 77 % 1024,8 hPa 0,0 l/m 2,4 km/h (1 Bft) 2 min 0 min 4,8 km/h (1 Bft)
25.12.2010 12:58 8,3 C -4,5 C 0,0 UV-I 2,6 C 42 % 89 % 74 % 1024,8 hPa 0,0 l/m 2,8 km/h (1 Bft) 2 min 0 min 5,1 km/h (1 Bft)
25.12.2010 13:00 8,3 C -4,5 C 0,0 UV-I 2,5 C 42 % 89 % 71 % 1024,8 hPa 0,0 l/m 3,2 km/h (1 Bft) 2 min 0 min 3,2 km/h (1 Bft)
25.12.2010 13:02 8,2 C -4,5 C 0,0 UV-I 2,5 C 42 % 89 % 71 % 1024,8 hPa 0,0 l/m 4,0 km/h (1 Bft) 2 min 0 min 4,2 km/h (1 Bft)
25.12.2010 13:04 8,2 C -4,6 C 0,0 UV-I 2,6 C 42 % 89 % 74 % 1024,8 hPa 0,0 l/m 4,0 km/h (1 Bft) 2 min 0 min 0,0 km/h (0 Bft)
25.12.2010 13:06 8,2 C -4,5 C 0,0 UV-I 2,8 C 42 % 89 % 80 % 1024,8 hPa 0,0 l/m 2,8 km/h (1 Bft) 2 min 0 min 0,0 km/h (0 Bft)
25.12.2010 13:08 8,4 C -4,5 C 0,0 UV-I 3,1 C 42 % 89 % 89 % 1024,8 hPa 0,0 l/m 2,0 km/h (1 Bft) 2 min 0 min 4,2 km/h (1 Bft)
25.12.2010 13:10 8,4 C -4,4 C 0,0 UV-I 3,2 C 42 % 89 % 91 % 1024,8 hPa 0,0 l/m 1,6 km/h (1 Bft) 2 min 0 min 3,2 km/h (1 Bft)
25.12.2010 13:12 8,4 C -4,4 C 0,0 UV-I 3,4 C 42 % 89 % 97 % 1024,8 hPa 0,0 l/m 0,8 km/h (0 Bft) 2 min 0 min 3,5 km/h (1 Bft)
25.12.2010 13:14 8,4 C -4,3 C 0,0 UV-I 3,5 C 42 % 89 % 100 % 1024,8 hPa 0,0 l/m 0,8 km/h (0 Bft) 2 min 0 min 4,5 km/h (1 Bft)
25.12.2010 13:16 8,4 C -4,3 C 0,0 UV-I 3,7 C 42 % 89 % 100 % 1024,8 hPa 0,0 l/m 1,2 km/h (1 Bft) 2 min 0 min 0,0 km/h (0 Bft)
25.12.2010 13:18 8,4 C -4,1 C 0,0 UV-I 3,9 C 42 % 89 % 100 % 1024,8 hPa 0,0 l/m 1,2 km/h (1 Bft) 2 min 0 min 3,9 km/h (1 Bft)
25.12.2010 13:20 8,4 C -4,1 C 0,0 UV-I 4,2 C 42 % 89 % 100 % 1024,8 hPa 0,0 l/m 1,2 km/h (1 Bft) 2 min 0 min 0,0 km/h (0 Bft)
25.12.2010 13:22 8,4 C -4,1 C 0,0 UV-I 4,4 C 42 % 89 % 100 % 1024,8 hPa 0,0 l/m 1,6 km/h (1 Bft) 2 min 0 min 5,1 km/h (1 Bft)
25.12.2010 13:24 8,3 C -4,2 C 0,0 UV-I 4,5 C 42 % 89 % 100 % 1024,8 hPa 0,0 l/m 1,6 km/h (1 Bft) 2 min 0 min 5,8 km/h (2 Bft)
25.12.2010 13:26 8,4 C -4,2 C 0,0 UV-I 4,5 C 42 % 88 % 100 % 1024,8 hPa 0,0 l/m 2,0 km/h (1 Bft) 2 min 0 min 3,2 km/h (1 Bft)
25.12.2010 13:28 8,3 C -4,1 C 0,0 UV-I 4,4 C 42 % 88 % 100 % 1024,8 hPa 0,0 l/m 3,2 km/h (1 Bft) 2 min 0 min 3,9 km/h (1 Bft)
25.12.2010 13:30 8,3 C -4,1 C 0,0 UV-I 4,4 C 42 % 88 % 100 % 1024,8 hPa 0,0 l/m 3,6 km/h (1 Bft) 2 min 0 min 7,1 km/h (2 Bft)
25.12.2010 13:32 8,3 C -4,1 C 0,0 UV-I 4,3 C 42 % 88 % 100 % 1024,8 hPa 0,0 l/m 4,0 km/h (1 Bft) 2 min 0 min 6,1 km/h (2 Bft)
25.12.2010 13:34 8,3 C -4,1 C 0,0 UV-I 4,2 C 42 % 88 % 100 % 1024,8 hPa 0,0 l/m 3,6 km/h (1 Bft) 2 min 0 min 4,5 km/h (1 Bft)
25.12.2010 13:36 8,5 C -4,1 C 0,0 UV-I 4,3 C 42 % 88 % 100 % 1024,8 hPa 0,0 l/m 3,2 km/h (1 Bft) 2 min 0 min 0,0 km/h (0 Bft)
25.12.2010 13:38 8,5 C -4,1 C 0,0 UV-I 4,5 C 42 % 88 % 100 % 1024,8 hPa 0,0 l/m 2,4 km/h (1 Bft) 2 min 0 min 0,0 km/h (0 Bft)
25.12.2010 13:40 8,5 C -4,1 C 0,0 UV-I 4,6 C 42 % 88 % 100 % 1024,8 hPa 0,0 l/m 2,0 km/h (1 Bft) 2 min 0 min 0,0 km/h (0 Bft)
25.12.2010 13:42 8,4 C -4,0 C 0,0 UV-I 4,6 C 42 % 88 % 100 % 1024,8 hPa 0,0 l/m 1,2 km/h (1 Bft) 2 min 0 min 0,0 km/h (0 Bft)
25.12.2010 13:44 8,4 C -3,9 C 0,0 UV-I 4,8 C 42 % 88 % 100 % 1024,8 hPa 0,0 l/m 1,2 km/h (1 Bft) 2 min 0 min 0,0 km/h (0 Bft)
25.12.2010 13:46 8,4 C -3,9 C 0,0 UV-I 5,0 C 42 % 88 % 100 % 1025,0 hPa 0,0 l/m 0,8 km/h (0 Bft) 2 min 0 min 9,7 km/h (2 Bft)
25.12.2010 13:48 8,6 C -3,9 C 0,0 UV-I 5,2 C 42 % 88 % 100 % 1025,0 hPa 0,0 l/m 1,2 km/h (1 Bft) 2 min 0 min 3,5 km/h (1 Bft)
25.12.2010 13:50 8,6 C -3,7 C 0,0 UV-I 5,0 C 42 % 88 % 100 % 1025,0 hPa 0,0 l/m 1,6 km/h (1 Bft) 2 min 0 min 5,5 km/h (1 Bft)
25.12.2010 13:52 8,6 C -3,7 C 0,0 UV-I 4,9 C 42 % 88 % 100 % 1025,0 hPa 0,0 l/m 2,4 km/h (1 Bft) 2 min 0 min 4,2 km/h (1 Bft)
25.12.2010 13:54 8,6 C -3,9 C 0,0 UV-I 5,1 C 42 % 88 % 100 % 1025,0 hPa 0,0 l/m 2,4 km/h (1 Bft) 2 min 0 min 0,0 km/h (0 Bft)
25.12.2010 13:56 8,7 C -3,7 C 0,0 UV-I 5,0 C 42 % 88 % 100 % 1025,0 hPa 0,0 l/m 2,4 km/h (1 Bft) 2 min 0 min 3,2 km/h (1 Bft)
25.12.2010 13:58 8,6 C -3,8 C 0,0 UV-I 5,3 C 42 % 88 % 100 % 1025,0 hPa 0,0 l/m 2,0 km/h (1 Bft) 2 min 0 min 4,2 km/h (1 Bft)
25.12.2010 14:00 8,7 C -3,7 C 0,0 UV-I 5,1 C 42 % 88 % 100 % 1025,0 hPa 0,0 l/m 2,4 km/h (1 Bft) 2 min 0 min 3,5 km/h (1 Bft)
25.12.2010 14:02 8,6 C -3,9 C 0,0 UV-I 4,8 C 42 % 88 % 100 % 1025,0 hPa 0,0 l/m 1,6 km/h (1 Bft) 2 min 0 min 0,0 km/h (0 Bft)
25.12.2010 14:04 8,8 C -3,9 C 0,0 UV-I 4,7 C 42 % 88 % 100 % 1025,0 hPa 0,0 l/m 1,2 km/h (1 Bft) 2 min 0 min 0,0 km/h (0 Bft)
25.12.2010 14:06 8,8 C -3,9 C 0,0 UV-I 4,7 C 42 % 88 % 100 % 1025,0 hPa 0,0 l/m 1,6 km/h (1 Bft) 2 min 0 min 4,8 km/h (1 Bft)
25.12.2010 14:08 8,8 C -3,9 C 0,0 UV-I 4,6 C 42 % 87 % 100 % 1025,0 hPa 0,0 l/m 2,4 km/h (1 Bft) 2 min 0 min 3,9 km/h (1 Bft)
25.12.2010 14:10 8,8 C -3,9 C 0,0 UV-I 4,5 C 41 % 87 % 100 % 1025,0 hPa 0,0 l/m 2,4 km/h (1 Bft) 2 min 0 min 3,9 km/h (1 Bft)
25.12.2010 14:12 8,8 C -3,9 C 0,0 UV-I 3,9 C 41 % 87 % 100 % 1025,0 hPa 0,0 l/m 2,8 km/h (1 Bft) 2 min 0 min 3,9 km/h (1 Bft)
25.12.2010 14:14 8,8 C -4,0 C 0,0 UV-I 3,6 C 41 % 88 % 100 % 1025,0 hPa 0,0 l/m 3,2 km/h (1 Bft) 2 min 0 min 4,5 km/h (1 Bft)
25.12.2010 14:16 8,8 C -4,0 C 0,0 UV-I 3,4 C 41 % 88 % 97 % 1025,0 hPa 0,0 l/m 3,2 km/h (1 Bft) 2 min 0 min 0,0 km/h (0 Bft)
25.12.2010 14:18 8,8 C -4,0 C 0,0 UV-I 3,4 C 41 % 88 % 97 % 1025,0 hPa 0,0 l/m 2,4 km/h (1 Bft) 2 min 0 min 3,9 km/h (1 Bft)
25.12.2010 14:20 8,8 C -4,1 C 0,0 UV-I 3,4 C 41 % 87 % 97 % 1025,0 hPa 0,0 l/m 2,8 km/h (1 Bft) 2 min 0 min 4,8 km/h (1 Bft)
25.12.2010 14:22 8,8 C -4,1 C 0,0 UV-I 3,1 C 41 % 87 % 89 % 1025,0 hPa 0,0 l/m 2,8 km/h (1 Bft) 2 min 0 min 7,4 km/h (2 Bft)
25.12.2010 14:24 8,8 C -4,1 C 0,0 UV-I 2,8 C 41 % 87 % 80 % 1025,0 hPa 0,0 l/m 2,4 km/h (1 Bft) 2 min 0 min 0,0 km/h (0 Bft)
25.12.2010 14:26 8,8 C -4,1 C 0,0 UV-I 2,7 C 41 % 87 % 77 % 1025,0 hPa 0,0 l/m 2,8 km/h (1 Bft) 2 min 0 min 0,0 km/h (0 Bft)
25.12.2010 14:28 8,8 C -4,3 C 0,0 UV-I 2,9 C 41 % 87 % 83 % 1025,0 hPa 0,0 l/m 2,8 km/h (1 Bft) 2 min 0 min 0,0 km/h (0 Bft)
25.12.2010 14:30 8,9 C -4,3 C 0,0 UV-I 2,7 C 41 % 87 % 77 % 1025,0 hPa 0,0 l/m 2,8 km/h (1 Bft) 2 min 0 min 6,4 km/h (2 Bft)
25.12.2010 14:32 8,8 C -4,3 C 0,0 UV-I 2,6 C 41 % 87 % 74 % 1025,0 hPa 0,0 l/m 2,4 km/h (1 Bft) 2 min 0 min 0,0 km/h (0 Bft)
25.12.2010 14:34 8,8 C -4,4 C 0,0 UV-I 2,4 C 41 % 87 % 69 % 1025,0 hPa 0,0 l/m 2,0 km/h (1 Bft) 2 min 0 min 0,0 km/h (0 Bft)
25.12.2010 14:36 8,8 C -4,4 C 0,0 UV-I 2,2 C 41 % 87 % 63 % 1025,0 hPa 0,0 l/m 2,0 km/h (1 Bft) 2 min 0 min 5,1 km/h (1 Bft)
25.12.2010 14:38 8,8 C -4,3 C 0,0 UV-I 1,9 C 41 % 88 % 54 % 1025,0 hPa 0,0 l/m 2,8 km/h (1 Bft) 2 min 0 min 7,7 km/h (2 Bft)
25.12.2010 14:40 8,9 C -4,5 C 0,0 UV-I 1,9 C 41 % 87 % 54 % 1025,0 hPa 0,0 l/m 2,8 km/h (1 Bft) 2 min 0 min 3,2 km/h (1 Bft)
25.12.2010 14:42 8,9 C -4,5 C 0,0 UV-I 1,8 C 41 % 87 % 51 % 1025,0 hPa 0,0 l/m 2,4 km/h (1 Bft) 2 min 0 min 3,2 km/h (1 Bft)
25.12.2010 14:44 8,9 C -4,5 C 0,0 UV-I 1,8 C 41 % 87 % 51 % 1025,0 hPa 0,0 l/m 2,4 km/h (1 Bft) 2 min 0 min 0,0 km/h (0 Bft)
25.12.2010 14:46 8,8 C -4,5 C 0,0 UV-I 1,7 C 41 % 87 % 49 % 1025,0 hPa 0,0 l/m 2,0 km/h (1 Bft) 2 min 0 min 0,0 km/h (0 Bft)
25.12.2010 14:48 8,8 C -4,5 C 0,0 UV-I 1,6 C 41 % 87 % 46 % 1025,0 hPa 0,0 l/m 2,0 km/h (1 Bft) 2 min 0 min 0,0 km/h (0 Bft)
25.12.2010 14:50 8,9 C -4,5 C 0,0 UV-I 1,4 C 41 % 87 % 40 % 1025,0 hPa 0,0 l/m 1,2 km/h (1 Bft) 0 min 0 min 3,2 km/h (1 Bft)
25.12.2010 14:52 8,8 C -4,5 C 0,0 UV-I 1,1 C 41 % 87 % 31 % 1025,0 hPa 0,0 l/m 1,2 km/h (1 Bft) 0 min 0 min 0,0 km/h (0 Bft)
25.12.2010 14:54 8,8 C -4,5 C 0,0 UV-I 1,1 C 41 % 87 % 31 % 1025,0 hPa 0,0 l/m 1,2 km/h (1 Bft) 0 min 0 min 0,0 km/h (0 Bft)
25.12.2010 14:56 8,8 C -4,5 C 0,0 UV-I 0,8 C 41 % 87 % 23 % 1025,0 hPa 0,0 l/m 0,8 km/h (0 Bft) 0 min 0 min 0,0 km/h (0 Bft)
25.12.2010 14:58 8,8 C -4,5 C 0,0 UV-I 0,6 C 41 % 87 % 17 % 1025,0 hPa 0,0 l/m 0,8 km/h (0 Bft) 0 min 0 min 0,0 km/h (0 Bft)
25.12.2010 15:00 8,8 C -4,5 C 0,0 UV-I 0,5 C 41 % 87 % 14 % 1025,0 hPa 0,0 l/m 0,4 km/h (0 Bft) 0 min 0 min 0,0 km/h (0 Bft)
25.12.2010 15:02 8,8 C -4,5 C 0,0 UV-I 0,3 C 41 % 87 % 9 % 1025,0 hPa 0,0 l/m 0,8 km/h (0 Bft) 0 min 0 min 0,0 km/h (0 Bft)
25.12.2010 15:04 8,8 C -4,6 C 0,0 UV-I 0,4 C 41 % 87 % 11 % 1025,0 hPa 0,0 l/m 0,4 km/h (0 Bft) 0 min 0 min 0,0 km/h (0 Bft)
25.12.2010 15:06 8,8 C -4,5 C 0,0 UV-I 0,1 C 41 % 87 % 3 % 1025,0 hPa 0,0 l/m 0,4 km/h (0 Bft) 0 min 0 min 0,0 km/h (0 Bft)
25.12.2010 15:08 8,8 C -4,6 C 0,0 UV-I 0,0 C 41 % 87 % 0 % 1025,0 hPa 0,0 l/m 0,4 km/h (0 Bft) 0 min 0 min 0,0 km/h (0 Bft)
25.12.2010 15:10 8,8 C -4,5 C 0,0 UV-I 0,0 C 41 % 87 % 0 % 1025,0 hPa 0,0 l/m 0,4 km/h (0 Bft) 0 min 0 min 0,0 km/h (0 Bft)
25.12.2010 15:12 8,8 C -4,5 C 0,0 UV-I 0,0 C 41 % 87 % 0 % 1025,0 hPa 0,0 l/m 0,0 km/h (0 Bft) 0 min 0 min 0,0 km/h (0 Bft)
25.12.2010 15:14 8,8 C -4,5 C 0,0 UV-I 0,0 C 41 % 87 % 0 % 1025,0 hPa 0,0 l/m 0,0 km/h (0 Bft) 0 min 0 min 3,5 km/h (1 Bft)
25.12.2010 15:16 8,8 C -4,7 C 0,0 UV-I 0,0 C 41 % 87 % 0 % 1025,0 hPa 0,0 l/m 0,4 km/h (0 Bft) 0 min 0 min 0,0 km/h (0 Bft)
25.12.2010 15:18 8,8 C -4,7 C 0,0 UV-I 0,0 C 41 % 87 % 0 % 1025,0 hPa 0,0 l/m 0,4 km/h (0 Bft) 0 min 0 min 0,0 km/h (0 Bft)
25.12.2010 15:20 8,8 C -4,7 C 0,0 UV-I 0,0 C 41 % 87 % 0 % 1025,0 hPa 0,0 l/m 0,4 km/h (0 Bft) 0 min 0 min 0,0 km/h (0 Bft)
25.12.2010 15:22 8,8 C -4,7 C 0,0 UV-I 0,0 C 41 % 87 % 0 % 1025,0 hPa 0,0 l/m 0,4 km/h (0 Bft) 0 min 0 min 0,0 km/h (0 Bft)
25.12.2010 15:24 8,8 C -4,7 C 0,0 UV-I 0,0 C 41 % 87 % 0 % 1025,0 hPa 0,0 l/m 0,4 km/h (0 Bft) 0 min 0 min 0,0 km/h (0 Bft)
25.12.2010 15:26 8,6 C -4,8 C 0,0 UV-I 0,0 C 41 % 87 % 0 % 1025,0 hPa 0,0 l/m 0,4 km/h (0 Bft) 0 min 0 min 0,0 km/h (0 Bft)
25.12.2010 15:28 8,6 C -4,8 C 0,0 UV-I 0,0 C 41 % 87 % 0 % 1025,0 hPa 0,0 l/m 0,4 km/h (0 Bft) 0 min 0 min 0,0 km/h (0 Bft)
25.12.2010 15:30 8,6 C -4,9 C 0,0 UV-I 0,0 C 41 % 87 % 0 % 1025,0 hPa 0,0 l/m 0,4 km/h (0 Bft) 0 min 0 min 0,0 km/h (0 Bft)
25.12.2010 15:32 8,7 C -4,9 C 0,0 UV-I 0,0 C 41 % 88 % 0 % 1025,0 hPa 0,0 l/m 0,0 km/h (0 Bft) 0 min 0 min 0,0 km/h (0 Bft)
25.12.2010 15:34 8,7 C -4,9 C 0,0 UV-I 0,0 C 41 % 88 % 0 % 1025,0 hPa 0,0 l/m 0,0 km/h (0 Bft) 0 min 0 min 0,0 km/h (0 Bft)
25.12.2010 15:36 8,7 C -4,9 C 0,0 UV-I 0,0 C 41 % 88 % 0 % 1025,0 hPa 0,0 l/m 0,0 km/h (0 Bft) 0 min 0 min 0,0 km/h (0 Bft)
25.12.2010 15:38 8,7 C -4,9 C 0,0 UV-I 0,0 C 41 % 88 % 0 % 1025,0 hPa 0,0 l/m 0,0 km/h (0 Bft) 0 min 0 min 0,0 km/h (0 Bft)
25.12.2010 15:40 8,7 C -5,0 C 0,0 UV-I 0,0 C 41 % 87 % 0 % 1025,0 hPa 0,0 l/m 0,0 km/h (0 Bft) 0 min 0 min 0,0 km/h (0 Bft)
25.12.2010 15:42 8,7 C -4,9 C 0,0 UV-I 0,0 C 41 % 88 % 0 % 1025,0 hPa 0,0 l/m 0,0 km/h (0 Bft) 0 min 0 min 0,0 km/h (0 Bft)
25.12.2010 15:44 8,6 C -4,9 C 0,0 UV-I 0,0 C 41 % 88 % 0 % 1025,0 hPa 0,0 l/m 0,0 km/h (0 Bft) 0 min 0 min 0,0 km/h (0 Bft)
25.12.2010 15:46 8,6 C -4,9 C 0,0 UV-I 0,0 C 41 % 88 % 0 % 1025,9 hPa 0,0 l/m 0,0 km/h (0 Bft) 0 min 0 min 0,0 km/h (0 Bft)
25.12.2010 15:48 8,6 C -4,9 C 0,0 UV-I 0,0 C 41 % 88 % 0 % 1025,9 hPa 0,0 l/m 0,0 km/h (0 Bft) 0 min 0 min 0,0 km/h (0 Bft)
25.12.2010 15:50 8,6 C -4,9 C 0,0 UV-I 0,0 C 41 % 88 % 0 % 1025,9 hPa 0,0 l/m 0,4 km/h (0 Bft) 0 min 0 min 0,0 km/h (0 Bft)
25.12.2010 15:52 8,6 C -5,1 C 0,0 UV-I 0,0 C 41 % 88 % 0 % 1025,9 hPa 0,0 l/m 0,4 km/h (0 Bft) 0 min 0 min 0,0 km/h (0 Bft)
25.12.2010 15:54 8,6 C -5,1 C 0,0 UV-I 0,0 C 41 % 88 % 0 % 1025,9 hPa 0,0 l/m 0,4 km/h (0 Bft) 0 min 0 min 0,0 km/h (0 Bft)
25.12.2010 15:56 8,6 C -5,1 C 0,0 UV-I 0,0 C 41 % 88 % 0 % 1025,9 hPa 0,0 l/m 0,4 km/h (0 Bft) 0 min 0 min 0,0 km/h (0 Bft)
25.12.2010 15:58 8,6 C -5,1 C 0,0 UV-I 0,0 C 41 % 88 % 0 % 1025,9 hPa 0,0 l/m 0,4 km/h (0 Bft) 0 min 0 min 0,0 km/h (0 Bft)
25.12.2010 16:00 8,6 C -5,1 C 0,0 UV-I 0,0 C 41 % 88 % 0 % 1025,9 hPa 0,0 l/m 0,4 km/h (0 Bft) 0 min 0 min 0,0 km/h (0 Bft)
25.12.2010 16:02 8,6 C -5,1 C 0,0 UV-I 0,0 C 41 % 88 % 0 % 1025,9 hPa 0,0 l/m 0,4 km/h (0 Bft) 0 min 0 min 0,0 km/h (0 Bft)
25.12.2010 16:04 8,6 C -5,2 C 0,0 UV-I 0,0 C 41 % 88 % 0 % 1025,9 hPa 0,0 l/m 0,0 km/h (0 Bft) 0 min 0 min 3,2 km/h (1 Bft)
25.12.2010 16:06 8,6 C -5,2 C 0,0 UV-I 0,0 C 41 % 88 % 0 % 1025,9 hPa 0,0 l/m 0,0 km/h (0 Bft) 0 min 0 min 0,0 km/h (0 Bft)
25.12.2010 16:08 8,4 C -5,3 C 0,0 UV-I 0,0 C 41 % 88 % 0 % 1025,9 hPa 0,0 l/m 0,0 km/h (0 Bft) 0 min 0 min 0,0 km/h (0 Bft)
25.12.2010 16:10 8,4 C -5,3 C 0,0 UV-I 0,0 C 41 % 88 % 0 % 1025,9 hPa 0,0 l/m 0,0 km/h (0 Bft) 0 min 0 min 0,0 km/h (0 Bft)
25.12.2010 16:12 8,4 C -5,3 C 0,0 UV-I 0,0 C 41 % 88 % 0 % 1025,9 hPa 0,0 l/m 0,0 km/h (0 Bft) 0 min 0 min 0,0 km/h (0 Bft)
25.12.2010 16:14 8,5 C -5,3 C 0,0 UV-I 0,0 C 41 % 88 % 0 % 1025,9 hPa 0,0 l/m 0,0 km/h (0 Bft) 0 min 0 min 0,0 km/h (0 Bft)
25.12.2010 16:16 8,5 C -5,3 C 0,0 UV-I 0,0 C 41 % 88 % 0 % 1025,9 hPa 0,0 l/m 0,0 km/h (0 Bft) 0 min 0 min 0,0 km/h (0 Bft)
25.12.2010 16:18 8,3 C -5,5 C 0,0 UV-I 0,0 C 41 % 88 % 0 % 1025,9 hPa 0,0 l/m 0,0 km/h (0 Bft) 0 min 0 min 0,0 km/h (0 Bft)
25.12.2010 16:20 8,3 C -5,5 C 0,0 UV-I 0,0 C 41 % 88 % 0 % 1025,9 hPa 0,0 l/m 0,0 km/h (0 Bft) 0 min 0 min 0,0 km/h (0 Bft)
25.12.2010 16:22 8,3 C -5,5 C 0,0 UV-I 0,0 C 41 % 88 % 0 % 1025,9 hPa 0,0 l/m 0,0 km/h (0 Bft) 0 min 0 min 0,0 km/h (0 Bft)
25.12.2010 16:24 8,3 C -5,5 C 0,0 UV-I 0,0 C 41 % 88 % 0 % 1025,9 hPa 0,0 l/m 0,0 km/h (0 Bft) 0 min 0 min 0,0 km/h (0 Bft)
25.12.2010 16:26 8,4 C -5,5 C 0,0 UV-I 0,0 C 41 % 88 % 0 % 1025,9 hPa 0,0 l/m 0,0 km/h (0 Bft) 0 min 0 min 0,0 km/h (0 Bft)
25.12.2010 16:28 8,4 C -5,7 C 0,0 UV-I 0,0 C 41 % 88 % 0 % 1025,9 hPa 0,0 l/m 0,0 km/h (0 Bft) 0 min 0 min 0,0 km/h (0 Bft)
25.12.2010 16:30 8,4 C -5,7 C 0,0 UV-I 0,0 C 41 % 88 % 0 % 1025,9 hPa 0,0 l/m 0,0 km/h (0 Bft) 0 min 0 min 0,0 km/h (0 Bft)
25.12.2010 16:32 8,4 C -5,7 C 0,0 UV-I 0,0 C 41 % 88 % 0 % 1025,9 hPa 0,0 l/m 0,0 km/h (0 Bft) 0 min 0 min 0,0 km/h (0 Bft)
25.12.2010 16:34 8,4 C -5,7 C 0,0 UV-I 0,0 C 41 % 88 % 0 % 1025,9 hPa 0,0 l/m 0,0 km/h (0 Bft) 0 min 0 min 0,0 km/h (0 Bft)
25.12.2010 16:36 8,4 C -5,9 C 0,0 UV-I 0,0 C 41 % 88 % 0 % 1025,9 hPa 0,0 l/m 0,0 km/h (0 Bft) 0 min 0 min 0,0 km/h (0 Bft)
25.12.2010 16:38 8,2 C -5,9 C 0,0 UV-I 0,0 C 41 % 88 % 0 % 1025,9 hPa 0,0 l/m 0,0 km/h (0 Bft) 0 min 0 min 0,0 km/h (0 Bft)
25.12.2010 16:40 8,2 C -6,1 C 0,0 UV-I 0,0 C 41 % 88 % 0 % 1025,9 hPa 0,0 l/m 0,0 km/h (0 Bft) 0 min 0 min 0,0 km/h (0 Bft)
25.12.2010 16:42 8,3 C -6,1 C 0,0 UV-I 0,0 C 41 % 88 % 0 % 1025,9 hPa 0,0 l/m 0,0 km/h (0 Bft) 0 min 0 min 0,0 km/h (0 Bft)
25.12.2010 16:44 8,3 C -6,1 C 0,0 UV-I 0,0 C 41 % 88 % 0 % 1025,9 hPa 0,0 l/m 0,0 km/h (0 Bft) 0 min 0 min 0,0 km/h (0 Bft)
25.12.2010 16:46 8,3 C -6,1 C 0,0 UV-I 0,0 C 41 % 88 % 0 % 1025,9 hPa 0,0 l/m 0,0 km/h (0 Bft) 0 min 0 min 0,0 km/h (0 Bft)
25.12.2010 16:48 8,3 C -6,4 C 0,0 UV-I 0,0 C 41 % 88 % 0 % 1025,9 hPa 0,0 l/m 0,0 km/h (0 Bft) 0 min 0 min 0,0 km/h (0 Bft)
25.12.2010 16:50 8,1 C -6,4 C 0,0 UV-I 0,0 C 41 % 88 % 0 % 1025,9 hPa 0,0 l/m 0,0 km/h (0 Bft) 0 min 0 min 0,0 km/h (0 Bft)
25.12.2010 16:52 8,1 C -6,5 C 0,0 UV-I 0,0 C 41 % 88 % 0 % 1025,9 hPa 0,0 l/m 0,0 km/h (0 Bft) 0 min 0 min 0,0 km/h (0 Bft)
25.12.2010 16:54 8,2 C -6,5 C 0,0 UV-I 0,0 C 42 % 88 % 0 % 1025,9 hPa 0,0 l/m 0,0 km/h (0 Bft) 0 min 0 min 0,0 km/h (0 Bft)
25.12.2010 16:56 8,2 C -6,5 C 0,0 UV-I 0,0 C 41 % 88 % 0 % 1025,9 hPa 0,0 l/m 0,0 km/h (0 Bft) 0 min 0 min 0,0 km/h (0 Bft)
25.12.2010 16:58 8,2 C -6,6 C 0,0 UV-I 0,0 C 41 % 88 % 0 % 1025,9 hPa 0,0 l/m 0,0 km/h (0 Bft) 0 min 0 min 0,0 km/h (0 Bft)
25.12.2010 17:00 8,2 C -6,5 C 0,0 UV-I 0,0 C 41 % 88 % 0 % 1025,9 hPa 0,0 l/m 0,0 km/h (0 Bft) 0 min 0 min 0,0 km/h (0 Bft)
25.12.2010 17:02 8,1 C -6,7 C 0,0 UV-I 0,0 C 41 % 88 % 0 % 1025,9 hPa 0,0 l/m 0,0 km/h (0 Bft) 0 min 0 min 0,0 km/h (0 Bft)
25.12.2010 17:04 8,1 C -6,7 C 0,0 UV-I 0,0 C 41 % 88 % 0 % 1025,9 hPa 0,0 l/m 0,0 km/h (0 Bft) 0 min 0 min 0,0 km/h (0 Bft)
25.12.2010 17:06 8,1 C -6,7 C 0,0 UV-I 0,0 C 41 % 88 % 0 % 1025,9 hPa 0,0 l/m 0,0 km/h (0 Bft) 0 min 0 min 0,0 km/h (0 Bft)
25.12.2010 17:08 8,1 C -6,8 C 0,0 UV-I 0,0 C 41 % 88 % 0 % 1025,9 hPa 0,0 l/m 0,0 km/h (0 Bft) 0 min 0 min 0,0 km/h (0 Bft)
25.12.2010 17:10 8,1 C -6,9 C 0,0 UV-I 0,0 C 41 % 88 % 0 % 1025,9 hPa 0,0 l/m 0,0 km/h (0 Bft) 0 min 0 min 0,0 km/h (0 Bft)
25.12.2010 17:12 7,9 C -6,9 C 0,0 UV-I 0,0 C 41 % 88 % 0 % 1025,9 hPa 0,0 l/m 0,0 km/h (0 Bft) 0 min 0 min 0,0 km/h (0 Bft)
25.12.2010 17:14 7,9 C -6,9 C 0,0 UV-I 0,0 C 41 % 88 % 0 % 1025,9 hPa 0,0 l/m 0,0 km/h (0 Bft) 0 min 0 min 0,0 km/h (0 Bft)
25.12.2010 17:16 7,9 C -6,9 C 0,0 UV-I 0,0 C 41 % 88 % 0 % 1025,9 hPa 0,0 l/m 0,0 km/h (0 Bft) 0 min 0 min 0,0 km/h (0 Bft)
25.12.2010 17:18 7,9 C -7,1 C 0,0 UV-I 0,0 C 41 % 88 % 0 % 1025,9 hPa 0,0 l/m 0,0 km/h (0 Bft) 0 min 0 min 0,0 km/h (0 Bft)
25.12.2010 17:20 7,9 C -7,1 C 0,0 UV-I 0,0 C 41 % 88 % 0 % 1025,9 hPa 0,0 l/m 0,0 km/h (0 Bft) 0 min 0 min 0,0 km/h (0 Bft)
25.12.2010 17:22 8,0 C -7,2 C 0,0 UV-I 0,0 C 41 % 88 % 0 % 1025,9 hPa 0,0 l/m 0,0 km/h (0 Bft) 0 min 0 min 0,0 km/h (0 Bft)
25.12.2010 17:24 8,0 C -7,1 C 0,0 UV-I 0,0 C 41 % 88 % 0 % 1025,9 hPa 0,0 l/m 0,0 km/h (0 Bft) 0 min 0 min 0,0 km/h (0 Bft)
25.12.2010 17:26 8,0 C -7,3 C 0,0 UV-I 0,0 C 41 % 88 % 0 % 1025,9 hPa 0,0 l/m 0,0 km/h (0 Bft) 0 min 0 min 0,0 km/h (0 Bft)
25.12.2010 17:28 8,0 C -7,3 C 0,0 UV-I 0,0 C 41 % 89 % 0 % 1025,9 hPa 0,0 l/m 0,0 km/h (0 Bft) 0 min 0 min 0,0 km/h (0 Bft)
25.12.2010 17:30 8,0 C -7,3 C 0,0 UV-I 0,0 C 41 % 89 % 0 % 1025,9 hPa 0,0 l/m 0,0 km/h (0 Bft) 0 min 0 min 0,0 km/h (0 Bft)
25.12.2010 17:32 8,0 C -7,3 C 0,0 UV-I 0,0 C 41 % 89 % 0 % 1025,9 hPa 0,0 l/m 0,0 km/h (0 Bft) 0 min 0 min 0,0 km/h (0 Bft)
25.12.2010 17:34 7,8 C -7,3 C 0,0 UV-I 0,0 C 41 % 89 % 0 % 1025,9 hPa 0,0 l/m 0,0 km/h (0 Bft) 0 min 0 min 0,0 km/h (0 Bft)
25.12.2010 17:36 7,9 C -7,4 C 0,0 UV-I 0,0 C 42 % 89 % 0 % 1025,9 hPa 0,0 l/m 0,0 km/h (0 Bft) 0 min 0 min 0,0 km/h (0 Bft)
25.12.2010 17:38 7,9 C -7,3 C 0,0 UV-I 0,0 C 42 % 89 % 0 % 1025,9 hPa 0,0 l/m 0,0 km/h (0 Bft) 0 min 0 min 0,0 km/h (0 Bft)
25.12.2010 17:40 7,9 C -7,3 C 0,0 UV-I 0,0 C 42 % 89 % 0 % 1025,9 hPa 0,0 l/m 0,0 km/h (0 Bft) 0 min 0 min 0,0 km/h (0 Bft)
25.12.2010 17:42 7,9 C -7,3 C 0,0 UV-I 0,0 C 41 % 89 % 0 % 1025,9 hPa 0,0 l/m 0,0 km/h (0 Bft) 0 min 0 min 0,0 km/h (0 Bft)
25.12.2010 17:44 7,9 C -7,4 C 0,0 UV-I 0,0 C 42 % 89 % 0 % 1025,9 hPa 0,0 l/m 0,0 km/h (0 Bft) 0 min 0 min 0,0 km/h (0 Bft)
25.12.2010 17:46 7,9 C -7,3 C 0,0 UV-I 0,0 C 42 % 89 % 0 % 1025,9 hPa 0,0 l/m 0,0 km/h (0 Bft) 0 min 0 min 0,0 km/h (0 Bft)
25.12.2010 17:48 7,9 C -7,3 C 0,0 UV-I 0,0 C 42 % 89 % 0 % 1025,9 hPa 0,0 l/m 0,0 km/h (0 Bft) 0 min 0 min 0,0 km/h (0 Bft)
25.12.2010 17:50 7,8 C -7,3 C 0,0 UV-I 0,0 C 42 % 90 % 0 % 1025,9 hPa 0,0 l/m 0,0 km/h (0 Bft) 0 min 0 min 0,0 km/h (0 Bft)
25.12.2010 17:52 7,8 C -7,3 C 0,0 UV-I 0,0 C 42 % 90 % 0 % 1025,9 hPa 0,0 l/m 0,0 km/h (0 Bft) 0 min 0 min 0,0 km/h (0 Bft)
25.12.2010 17:54 7,8 C -7,3 C 0,0 UV-I 0,0 C 42 % 90 % 0 % 1025,9 hPa 0,0 l/m 0,0 km/h (0 Bft) 0 min 0 min 0,0 km/h (0 Bft)
25.12.2010 17:56 7,8 C -7,3 C 0,0 UV-I 0,0 C 42 % 90 % 0 % 1025,9 hPa 0,0 l/m 0,0 km/h (0 Bft) 0 min 0 min 0,0 km/h (0 Bft)
25.12.2010 17:58 7,8 C -7,3 C 0,0 UV-I 0,0 C 42 % 90 % 0 % 1025,9 hPa 0,0 l/m 0,0 km/h (0 Bft) 0 min 0 min 0,0 km/h (0 Bft)
25.12.2010 18:00 7,8 C -7,3 C 0,0 UV-I 0,0 C 42 % 90 % 0 % 1025,9 hPa 0,0 l/m 0,0 km/h (0 Bft) 0 min 0 min 0,0 km/h (0 Bft)
25.12.2010 18:02 7,8 C -7,2 C 0,0 UV-I 0,0 C 42 % 90 % 0 % 1025,9 hPa 0,0 l/m 0,0 km/h (0 Bft) 0 min 0 min 0,0 km/h (0 Bft)
25.12.2010 18:04 7,8 C -7,2 C 0,0 UV-I 0,0 C 42 % 90 % 0 % 1025,9 hPa 0,0 l/m 0,0 km/h (0 Bft) 0 min 0 min 0,0 km/h (0 Bft)
25.12.2010 18:06 7,8 C -7,1 C 0,0 UV-I 0,0 C 42 % 90 % 0 % 1025,9 hPa 0,0 l/m 0,0 km/h (0 Bft) 0 min 0 min 0,0 km/h (0 Bft)
25.12.2010 18:08 7,8 C -7,1 C 0,0 UV-I 0,0 C 42 % 90 % 0 % 1025,9 hPa 0,0 l/m 0,0 km/h (0 Bft) 0 min 0 min 0,0 km/h (0 Bft)
25.12.2010 18:10 7,8 C -6,9 C 0,0 UV-I 0,0 C 42 % 90 % 0 % 1025,9 hPa 0,0 l/m 0,0 km/h (0 Bft) 0 min 0 min 0,0 km/h (0 Bft)
25.12.2010 18:12 7,8 C -6,9 C 0,0 UV-I 0,0 C 42 % 90 % 0 % 1025,9 hPa 0,0 l/m 0,0 km/h (0 Bft) 0 min 0 min 0,0 km/h (0 Bft)
25.12.2010 18:14 7,8 C -6,9 C 0,0 UV-I 0,0 C 42 % 90 % 0 % 1025,9 hPa 0,0 l/m 0,0 km/h (0 Bft) 0 min 0 min 0,0 km/h (0 Bft)
25.12.2010 18:16 7,8 C -6,9 C 0,0 UV-I 0,0 C 42 % 91 % 0 % 1025,9 hPa 0,0 l/m 0,0 km/h (0 Bft) 0 min 0 min 0,0 km/h (0 Bft)
25.12.2010 18:18 7,8 C -6,9 C 0,0 UV-I 0,0 C 42 % 91 % 0 % 1025,9 hPa 0,0 l/m 0,0 km/h (0 Bft) 0 min 0 min 0,0 km/h (0 Bft)
25.12.2010 18:20 7,8 C -6,8 C 0,0 UV-I 0,0 C 42 % 91 % 0 % 1025,9 hPa 0,0 l/m 0,0 km/h (0 Bft) 0 min 0 min 0,0 km/h (0 Bft)
25.12.2010 18:22 7,8 C -6,8 C 0,0 UV-I 0,0 C 42 % 91 % 0 % 1025,9 hPa 0,0 l/m 0,0 km/h (0 Bft) 0 min 0 min 0,0 km/h (0 Bft)
25.12.2010 18:24 7,8 C -6,7 C 0,0 UV-I 0,0 C 42 % 91 % 0 % 1025,9 hPa 0,0 l/m 0,4 km/h (0 Bft) 0 min 0 min 0,0 km/h (0 Bft)
25.12.2010 18:26 7,8 C -6,7 C 0,0 UV-I 0,0 C 42 % 91 % 0 % 1025,9 hPa 0,0 l/m 0,4 km/h (0 Bft) 0 min 0 min 0,0 km/h (0 Bft)
25.12.2010 18:28 7,6 C -6,5 C 0,0 UV-I 0,0 C 42 % 91 % 0 % 1025,9 hPa 0,0 l/m 0,4 km/h (0 Bft) 0 min 0 min 0,0 km/h (0 Bft)
25.12.2010 18:30 7,6 C -6,5 C 0,0 UV-I 0,0 C 42 % 91 % 0 % 1025,9 hPa 0,0 l/m 0,4 km/h (0 Bft) 0 min 0 min 0,0 km/h (0 Bft)
25.12.2010 18:32 7,6 C -6,6 C 0,0 UV-I 0,0 C 42 % 91 % 0 % 1025,9 hPa 0,0 l/m 0,4 km/h (0 Bft) 0 min 0 min 0,0 km/h (0 Bft)
25.12.2010 18:34 7,8 C -6,5 C 0,0 UV-I 0,0 C 42 % 91 % 0 % 1025,9 hPa 0,0 l/m 0,0 km/h (0 Bft) 0 min 0 min 0,0 km/h (0 Bft)
25.12.2010 18:36 7,6 C -6,5 C 0,0 UV-I 0,0 C 42 % 91 % 0 % 1025,9 hPa 0,0 l/m 0,0 km/h (0 Bft) 0 min 0 min 0,0 km/h (0 Bft)
25.12.2010 18:38 7,6 C -6,5 C 0,0 UV-I 0,0 C 42 % 91 % 0 % 1025,9 hPa 0,0 l/m 0,0 km/h (0 Bft) 0 min 0 min 0,0 km/h (0 Bft)
25.12.2010 18:40 7,6 C -6,5 C 0,0 UV-I 0,0 C 42 % 91 % 0 % 1025,9 hPa 0,0 l/m 0,0 km/h (0 Bft) 0 min 0 min 0,0 km/h (0 Bft)
25.12.2010 18:42 7,8 C -6,5 C 0,0 UV-I 0,0 C 42 % 91 % 0 % 1025,9 hPa 0,0 l/m 0,0 km/h (0 Bft) 0 min 0 min 0,0 km/h (0 Bft)
25.12.2010 18:44 7,6 C -6,3 C 0,0 UV-I 0,0 C 42 % 91 % 0 % 1025,9 hPa 0,0 l/m 0,0 km/h (0 Bft) 0 min 0 min 0,0 km/h (0 Bft)
25.12.2010 18:46 7,8 C -6,4 C 0,0 UV-I 0,0 C 42 % 91 % 0 % 1025,9 hPa 0,0 l/m 0,0 km/h (0 Bft) 0 min 0 min 0,0 km/h (0 Bft)
25.12.2010 18:48 7,8 C -6,3 C 0,0 UV-I 0,0 C 42 % 91 % 0 % 1025,9 hPa 0,0 l/m 0,0 km/h (0 Bft) 0 min 0 min 0,0 km/h (0 Bft)
25.12.2010 18:50 7,8 C -6,3 C 0,0 UV-I 0,0 C 42 % 91 % 0 % 1025,9 hPa 0,0 l/m 0,0 km/h (0 Bft) 0 min 0 min 0,0 km/h (0 Bft)
25.12.2010 18:52 7,8 C -6,3 C 0,0 UV-I 0,0 C 42 % 91 % 0 % 1025,9 hPa 0,0 l/m 0,4 km/h (0 Bft) 0 min 0 min 3,5 km/h (1 Bft)
25.12.2010 18:54 7,6 C -6,1 C 0,0 UV-I 0,0 C 43 % 91 % 0 % 1025,9 hPa 0,0 l/m 0,4 km/h (0 Bft) 0 min 0 min 0,0 km/h (0 Bft)
25.12.2010 18:56 7,6 C -6,1 C 0,0 UV-I 0,0 C 42 % 91 % 0 % 1025,9 hPa 0,0 l/m 0,4 km/h (0 Bft) 0 min 0 min 0,0 km/h (0 Bft)
25.12.2010 18:58 7,8 C -6,1 C 0,0 UV-I 0,0 C 42 % 91 % 0 % 1025,9 hPa 0,0 l/m 0,4 km/h (0 Bft) 0 min 0 min 0,0 km/h (0 Bft)
25.12.2010 19:00 7,6 C -6,1 C 0,0 UV-I 0,0 C 43 % 91 % 0 % 1025,9 hPa 0,0 l/m 0,4 km/h (0 Bft) 0 min 0 min 0,0 km/h (0 Bft)
25.12.2010 19:02 7,6 C -6,1 C 0,0 UV-I 0,0 C 43 % 91 % 0 % 1025,9 hPa 0,0 l/m 0,4 km/h (0 Bft) 0 min 0 min 0,0 km/h (0 Bft)
25.12.2010 19:04 7,6 C -6,1 C 0,0 UV-I 0,0 C 43 % 91 % 0 % 1025,9 hPa 0,0 l/m 0,0 km/h (0 Bft) 0 min 0 min 0,0 km/h (0 Bft)
25.12.2010 19:06 7,8 C -6,1 C 0,0 UV-I 0,0 C 43 % 91 % 0 % 1025,9 hPa 0,0 l/m 0,0 km/h (0 Bft) 0 min 0 min 0,0 km/h (0 Bft)
25.12.2010 19:08 7,8 C -6,1 C 0,0 UV-I 0,0 C 43 % 91 % 0 % 1025,9 hPa 0,0 l/m 0,0 km/h (0 Bft) 0 min 0 min 0,0 km/h (0 Bft)
25.12.2010 19:10 7,8 C -6,1 C 0,0 UV-I 0,0 C 43 % 91 % 0 % 1025,9 hPa 0,0 l/m 0,0 km/h (0 Bft) 0 min 0 min 0,0 km/h (0 Bft)
25.12.2010 19:12 7,8 C -6,1 C 0,0 UV-I 0,0 C 43 % 91 % 0 % 1025,9 hPa 0,0 l/m 0,0 km/h (0 Bft) 0 min 0 min 0,0 km/h (0 Bft)
25.12.2010 19:14 7,8 C -6,1 C 0,0 UV-I 0,0 C 43 % 91 % 0 % 1025,9 hPa 0,0 l/m 0,0 km/h (0 Bft) 0 min 0 min 0,0 km/h (0 Bft)
25.12.2010 19:16 7,8 C -6,1 C 0,0 UV-I 0,0 C 43 % 91 % 0 % 1025,9 hPa 0,0 l/m 0,0 km/h (0 Bft) 0 min 0 min 0,0 km/h (0 Bft)
25.12.2010 19:18 7,8 C -6,1 C 0,0 UV-I 0,0 C 43 % 91 % 0 % 1025,9 hPa 0,0 l/m 0,0 km/h (0 Bft) 0 min 0 min 0,0 km/h (0 Bft)
25.12.2010 19:20 7,8 C -6,1 C 0,0 UV-I 0,0 C 43 % 91 % 0 % 1025,9 hPa 0,0 l/m 0,0 km/h (0 Bft) 0 min 0 min 0,0 km/h (0 Bft)
25.12.2010 19:22 7,8 C -6,1 C 0,0 UV-I 0,0 C 43 % 91 % 0 % 1025,9 hPa 0,0 l/m 0,0 km/h (0 Bft) 0 min 0 min 0,0 km/h (0 Bft)
25.12.2010 19:24 7,8 C -6,1 C 0,0 UV-I 0,0 C 43 % 91 % 0 % 1025,9 hPa 0,0 l/m 0,0 km/h (0 Bft) 0 min 0 min 0,0 km/h (0 Bft)
25.12.2010 19:26 7,8 C -6,1 C 0,0 UV-I 0,0 C 43 % 91 % 0 % 1025,9 hPa 0,0 l/m 0,0 km/h (0 Bft) 0 min 0 min 0,0 km/h (0 Bft)
25.12.2010 19:28 7,8 C -6,3 C 0,0 UV-I 0,0 C 43 % 91 % 0 % 1025,9 hPa 0,0 l/m 0,0 km/h (0 Bft) 0 min 0 min 0,0 km/h (0 Bft)
25.12.2010 19:30 7,8 C -6,1 C 0,0 UV-I 0,0 C 43 % 91 % 0 % 1025,9 hPa 0,0 l/m 0,0 km/h (0 Bft) 0 min 0 min 0,0 km/h (0 Bft)
25.12.2010 19:32 7,8 C -6,3 C 0,0 UV-I 0,0 C 43 % 91 % 0 % 1025,9 hPa 0,0 l/m 0,0 km/h (0 Bft) 0 min 0 min 0,0 km/h (0 Bft)
25.12.2010 19:34 7,8 C -6,3 C 0,0 UV-I 0,0 C 43 % 91 % 0 % 1025,9 hPa 0,0 l/m 0,0 km/h (0 Bft) 0 min 0 min 0,0 km/h (0 Bft)
25.12.2010 19:36 7,6 C -6,3 C 0,0 UV-I 0,0 C 43 % 91 % 0 % 1025,9 hPa 0,0 l/m 0,0 km/h (0 Bft) 0 min 0 min 0,0 km/h (0 Bft)
25.12.2010 19:38 7,8 C -6,3 C 0,0 UV-I 0,0 C 42 % 91 % 0 % 1025,9 hPa 0,0 l/m 0,0 km/h (0 Bft) 0 min 0 min 0,0 km/h (0 Bft)
25.12.2010 19:40 7,8 C -6,3 C 0,0 UV-I 0,0 C 43 % 91 % 0 % 1025,9 hPa 0,0 l/m 0,0 km/h (0 Bft) 0 min 0 min 0,0 km/h (0 Bft)
25.12.2010 19:42 7,8 C -6,3 C 0,0 UV-I 0,0 C 43 % 91 % 0 % 1025,9 hPa 0,0 l/m 0,0 km/h (0 Bft) 0 min 0 min 0,0 km/h (0 Bft)
25.12.2010 19:44 7,6 C -6,3 C 0,0 UV-I 0,0 C 43 % 91 % 0 % 1025,9 hPa 0,0 l/m 0,0 km/h (0 Bft) 0 min 0 min 0,0 km/h (0 Bft)
25.12.2010 19:46 7,6 C -6,3 C 0,0 UV-I 0,0 C 43 % 91 % 0 % 1027,4 hPa 0,0 l/m 0,0 km/h (0 Bft) 0 min 0 min 0,0 km/h (0 Bft)
25.12.2010 19:48 7,8 C -6,1 C 0,0 UV-I 0,0 C 42 % 91 % 0 % 1027,4 hPa 0,0 l/m 0,0 km/h (0 Bft) 0 min 0 min 0,0 km/h (0 Bft)
25.12.2010 19:50 7,8 C -6,1 C 0,0 UV-I 0,0 C 43 % 91 % 0 % 1027,4 hPa 0,0 l/m 0,0 km/h (0 Bft) 0 min 0 min 0,0 km/h (0 Bft)
25.12.2010 19:52 7,8 C -6,1 C 0,0 UV-I 0,0 C 43 % 91 % 0 % 1027,4 hPa 0,0 l/m 0,0 km/h (0 Bft) 0 min 0 min 0,0 km/h (0 Bft)
25.12.2010 19:54 7,8 C -6,1 C 0,0 UV-I 0,0 C 43 % 91 % 0 % 1027,4 hPa 0,0 l/m 0,0 km/h (0 Bft) 0 min 0 min 0,0 km/h (0 Bft)
25.12.2010 19:56 7,8 C -6,2 C 0,0 UV-I 0,0 C 43 % 91 % 0 % 1027,4 hPa 0,0 l/m 0,0 km/h (0 Bft) 0 min 0 min 0,0 km/h (0 Bft)
25.12.2010 19:58 7,8 C -6,2 C 0,0 UV-I 0,0 C 43 % 91 % 0 % 1027,4 hPa 0,0 l/m 0,0 km/h (0 Bft) 0 min 0 min 0,0 km/h (0 Bft)
25.12.2010 20:00 7,8 C -6,1 C 0,0 UV-I 0,0 C 43 % 91 % 0 % 1027,4 hPa 0,0 l/m 0,0 km/h (0 Bft) 0 min 0 min 0,0 km/h (0 Bft)
25.12.2010 20:02 7,8 C -6,1 C 0,0 UV-I 0,0 C 43 % 91 % 0 % 1027,4 hPa 0,0 l/m 0,0 km/h (0 Bft) 0 min 0 min 0,0 km/h (0 Bft)
25.12.2010 20:04 7,6 C -6,1 C 0,0 UV-I 0,0 C 43 % 91 % 0 % 1027,4 hPa 0,0 l/m 0,0 km/h (0 Bft) 0 min 0 min 0,0 km/h (0 Bft)
25.12.2010 20:06 7,8 C -6,1 C 0,0 UV-I 0,0 C 43 % 91 % 0 % 1027,4 hPa 0,0 l/m 0,0 km/h (0 Bft) 0 min 0 min 0,0 km/h (0 Bft)
25.12.2010 20:08 7,8 C -6,1 C 0,0 UV-I 0,0 C 43 % 91 % 0 % 1027,4 hPa 0,0 l/m 0,0 km/h (0 Bft) 0 min 0 min 0,0 km/h (0 Bft)
25.12.2010 20:10 7,8 C -6,1 C 0,0 UV-I 0,0 C 43 % 91 % 0 % 1027,4 hPa 0,0 l/m 0,0 km/h (0 Bft) 0 min 0 min 0,0 km/h (0 Bft)
25.12.2010 20:12 7,8 C -6,1 C 0,0 UV-I 0,0 C 43 % 91 % 0 % 1027,4 hPa 0,0 l/m 0,0 km/h (0 Bft) 0 min 0 min 0,0 km/h (0 Bft)
25.12.2010 20:14 7,8 C -6,0 C 0,0 UV-I 0,0 C 43 % 91 % 0 % 1027,4 hPa 0,0 l/m 0,0 km/h (0 Bft) 0 min 0 min 0,0 km/h (0 Bft)
25.12.2010 20:16 7,8 C -6,0 C 0,0 UV-I 0,0 C 43 % 91 % 0 % 1027,4 hPa 0,0 l/m 0,0 km/h (0 Bft) 0 min 0 min 0,0 km/h (0 Bft)
25.12.2010 20:18 7,8 C -6,0 C 0,0 UV-I 0,0 C 43 % 91 % 0 % 1027,4 hPa 0,0 l/m 0,0 km/h (0 Bft) 0 min 0 min 0,0 km/h (0 Bft)
25.12.2010 20:20 7,8 C -5,9 C 0,0 UV-I 0,0 C 43 % 91 % 0 % 1027,4 hPa 0,0 l/m 0,0 km/h (0 Bft) 0 min 0 min 0,0 km/h (0 Bft)
25.12.2010 20:22 7,8 C -5,9 C 0,0 UV-I 0,0 C 43 % 91 % 0 % 1027,4 hPa 0,0 l/m 0,0 km/h (0 Bft) 0 min 0 min 0,0 km/h (0 Bft)
25.12.2010 20:24 7,8 C -5,9 C 0,0 UV-I 0,0 C 43 % 91 % 0 % 1027,4 hPa 0,0 l/m 0,0 km/h (0 Bft) 0 min 0 min 0,0 km/h (0 Bft)
25.12.2010 20:26 7,8 C -5,7 C 0,0 UV-I 0,0 C 43 % 92 % 0 % 1027,4 hPa 0,0 l/m 0,0 km/h (0 Bft) 0 min 0 min 0,0 km/h (0 Bft)
25.12.2010 20:28 7,8 C -5,7 C 0,0 UV-I 0,0 C 43 % 91 % 0 % 1027,4 hPa 0,0 l/m 0,0 km/h (0 Bft) 0 min 0 min 0,0 km/h (0 Bft)
25.12.2010 20:30 7,6 C -5,7 C 0,0 UV-I 0,0 C 43 % 92 % 0 % 1027,4 hPa 0,0 l/m 0,0 km/h (0 Bft) 0 min 0 min 0,0 km/h (0 Bft)
25.12.2010 20:32 7,8 C -5,8 C 0,0 UV-I 0,0 C 43 % 91 % 0 % 1027,4 hPa 0,0 l/m 0,0 km/h (0 Bft) 0 min 0 min 0,0 km/h (0 Bft)
25.12.2010 20:34 7,8 C -5,7 C 0,0 UV-I 0,0 C 43 % 92 % 0 % 1027,4 hPa 0,0 l/m 0,0 km/h (0 Bft) 0 min 0 min 0,0 km/h (0 Bft)
25.12.2010 20:36 7,8 C -5,7 C 0,0 UV-I 0,0 C 43 % 92 % 0 % 1027,4 hPa 0,0 l/m 0,0 km/h (0 Bft) 0 min 0 min 0,0 km/h (0 Bft)
25.12.2010 20:38 7,8 C -5,7 C 0,0 UV-I 0,0 C 43 % 92 % 0 % 1027,4 hPa 0,0 l/m 0,0 km/h (0 Bft) 0 min 0 min 0,0 km/h (0 Bft)
25.12.2010 20:40 7,8 C -5,7 C 0,0 UV-I 0,0 C 43 % 92 % 0 % 1027,4 hPa 0,0 l/m 0,0 km/h (0 Bft) 0 min 0 min 0,0 km/h (0 Bft)
25.12.2010 20:42 7,8 C -5,7 C 0,0 UV-I 0,0 C 43 % 92 % 0 % 1027,4 hPa 0,0 l/m 0,4 km/h (0 Bft) 0 min 0 min 3,5 km/h (1 Bft)
25.12.2010 20:44 7,8 C -5,5 C 0,0 UV-I 0,0 C 43 % 92 % 0 % 1027,4 hPa 0,0 l/m 0,4 km/h (0 Bft) 0 min 0 min 0,0 km/h (0 Bft)
25.12.2010 20:46 7,8 C -5,6 C 0,0 UV-I 0,0 C 43 % 92 % 0 % 1027,4 hPa 0,0 l/m 0,4 km/h (0 Bft) 0 min 0 min 0,0 km/h (0 Bft)
25.12.2010 20:48 7,8 C -5,5 C 0,0 UV-I 0,0 C 43 % 92 % 0 % 1027,4 hPa 0,0 l/m 0,4 km/h (0 Bft) 0 min 0 min 0,0 km/h (0 Bft)
25.12.2010 20:50 7,8 C -5,5 C 0,0 UV-I 0,0 C 43 % 92 % 0 % 1027,4 hPa 0,0 l/m 0,4 km/h (0 Bft) 0 min 0 min 0,0 km/h (0 Bft)
25.12.2010 20:52 7,8 C -5,5 C 0,0 UV-I 0,0 C 43 % 92 % 0 % 1027,4 hPa 0,0 l/m 0,8 km/h (0 Bft) 0 min 0 min 5,1 km/h (1 Bft)
25.12.2010 20:54 7,8 C -5,5 C 0,0 UV-I 0,0 C 43 % 92 % 0 % 1027,4 hPa 0,0 l/m 1,2 km/h (1 Bft) 0 min 0 min 5,5 km/h (1 Bft)
25.12.2010 20:56 7,8 C -5,3 C 0,0 UV-I 0,0 C 43 % 92 % 0 % 1027,4 hPa 0,0 l/m 1,2 km/h (1 Bft) 0 min 0 min 0,0 km/h (0 Bft)
25.12.2010 20:58 7,8 C -5,3 C 0,0 UV-I 0,0 C 43 % 91 % 0 % 1027,4 hPa 0,0 l/m 1,2 km/h (1 Bft) 0 min 0 min 3,2 km/h (1 Bft)
25.12.2010 21:00 7,8 C -5,3 C 0,0 UV-I 0,0 C 43 % 92 % 0 % 1027,4 hPa 0,0 l/m 1,2 km/h (1 Bft) 0 min 0 min 0,0 km/h (0 Bft)
25.12.2010 21:02 7,8 C -5,4 C 0,0 UV-I 0,0 C 43 % 92 % 0 % 1027,4 hPa 0,0 l/m 1,2 km/h (1 Bft) 0 min 0 min 0,0 km/h (0 Bft)
25.12.2010 21:04 7,8 C -5,3 C 0,0 UV-I 0,0 C 43 % 92 % 0 % 1027,4 hPa 0,0 l/m 0,8 km/h (0 Bft) 0 min 0 min 3,5 km/h (1 Bft)
25.12.2010 21:06 7,8 C -5,3 C 0,0 UV-I 0,0 C 43 % 91 % 0 % 1027,4 hPa 0,0 l/m 0,4 km/h (0 Bft) 0 min 0 min 0,0 km/h (0 Bft)
25.12.2010 21:08 7,8 C -5,3 C 0,0 UV-I 0,0 C 43 % 92 % 0 % 1027,4 hPa 0,0 l/m 0,4 km/h (0 Bft) 0 min 0 min 0,0 km/h (0 Bft)
25.12.2010 21:10 7,8 C -5,3 C 0,0 UV-I 0,0 C 43 % 92 % 0 % 1027,4 hPa 0,0 l/m 0,4 km/h (0 Bft) 0 min 0 min 0,0 km/h (0 Bft)
25.12.2010 21:12 7,8 C -5,3 C 0,0 UV-I 0,0 C 43 % 92 % 0 % 1027,4 hPa 0,0 l/m 0,4 km/h (0 Bft) 0 min 0 min 0,0 km/h (0 Bft)
25.12.2010 21:14 7,8 C -5,3 C 0,0 UV-I 0,0 C 43 % 91 % 0 % 1027,4 hPa 0,0 l/m 0,4 km/h (0 Bft) 0 min 0 min 3,2 km/h (1 Bft)
25.12.2010 21:16 7,8 C -5,3 C 0,0 UV-I 0,0 C 43 % 91 % 0 % 1027,4 hPa 0,0 l/m 0,0 km/h (0 Bft) 0 min 0 min 0,0 km/h (0 Bft)
25.12.2010 21:18 7,8 C -5,3 C 0,0 UV-I 0,0 C 43 % 91 % 0 % 1027,4 hPa 0,0 l/m 0,0 km/h (0 Bft) 0 min 0 min 0,0 km/h (0 Bft)
25.12.2010 21:20 7,8 C -5,3 C 0,0 UV-I 0,0 C 43 % 91 % 0 % 1027,4 hPa 0,0 l/m 0,0 km/h (0 Bft) 0 min 0 min 0,0 km/h (0 Bft)
25.12.2010 21:22 7,8 C -5,1 C 0,0 UV-I 0,0 C 43 % 91 % 0 % 1027,4 hPa 0,0 l/m 0,0 km/h (0 Bft) 0 min 0 min 0,0 km/h (0 Bft)
25.12.2010 21:24 7,8 C -5,3 C 0,0 UV-I 0,0 C 43 % 91 % 0 % 1027,4 hPa 0,0 l/m 0,0 km/h (0 Bft) 0 min 0 min 0,0 km/h (0 Bft)
25.12.2010 21:26 7,8 C -5,2 C 0,0 UV-I 0,0 C 43 % 91 % 0 % 1027,4 hPa 0,0 l/m 0,0 km/h (0 Bft) 0 min 0 min 3,2 km/h (1 Bft)
25.12.2010 21:28 7,8 C -5,2 C 0,0 UV-I 0,0 C 43 % 91 % 0 % 1027,4 hPa 0,0 l/m 0,4 km/h (0 Bft) 0 min 0 min 0,0 km/h (0 Bft)
25.12.2010 21:30 7,8 C -5,2 C 0,0 UV-I 0,0 C 43 % 91 % 0 % 1027,4 hPa 0,0 l/m 0,4 km/h (0 Bft) 0 min 0 min 0,0 km/h (0 Bft)
25.12.2010 21:32 7,8 C -5,2 C 0,0 UV-I 0,0 C 43 % 91 % 0 % 1027,4 hPa 0,0 l/m 0,4 km/h (0 Bft) 0 min 0 min 0,0 km/h (0 Bft)
25.12.2010 21:34 7,8 C -5,1 C 0,0 UV-I 0,0 C 43 % 91 % 0 % 1027,4 hPa 0,0 l/m 1,2 km/h (1 Bft) 0 min 0 min 0,0 km/h (0 Bft)
25.12.2010 21:36 7,8 C -5,1 C 0,0 UV-I 0,0 C 43 % 91 % 0 % 1027,4 hPa 0,0 l/m 1,2 km/h (1 Bft) 0 min 0 min 0,0 km/h (0 Bft)
25.12.2010 21:38 7,8 C -5,1 C 0,0 UV-I 0,0 C 43 % 91 % 0 % 1027,4 hPa 0,0 l/m 0,8 km/h (0 Bft) 0 min 0 min 0,0 km/h (0 Bft)
25.12.2010 21:40 7,8 C -5,1 C 0,0 UV-I 0,0 C 43 % 91 % 0 % 1027,4 hPa 0,0 l/m 0,8 km/h (0 Bft) 0 min 0 min 0,0 km/h (0 Bft)
25.12.2010 21:42 7,8 C -4,9 C 0,0 UV-I 0,0 C 43 % 92 % 0 % 1027,4 hPa 0,0 l/m 0,8 km/h (0 Bft) 0 min 0 min 4,2 km/h (1 Bft)
25.12.2010 21:44 7,8 C -4,9 C 0,0 UV-I 0,0 C 43 % 92 % 0 % 1027,4 hPa 0,0 l/m 0,4 km/h (0 Bft) 0 min 0 min 0,0 km/h (0 Bft)
25.12.2010 21:46 7,8 C -4,9 C 0,0 UV-I 0,0 C 43 % 92 % 0 % 1027,4 hPa 0,0 l/m 0,4 km/h (0 Bft) 0 min 0 min 0,0 km/h (0 Bft)
25.12.2010 21:48 7,8 C -4,9 C 0,0 UV-I 0,0 C 43 % 92 % 0 % 1027,4 hPa 0,0 l/m 0,4 km/h (0 Bft) 0 min 0 min 0,0 km/h (0 Bft)
25.12.2010 21:50 7,8 C -4,9 C 0,0 UV-I 0,0 C 43 % 92 % 0 % 1027,4 hPa 0,0 l/m 0,8 km/h (0 Bft) 0 min 0 min 0,0 km/h (0 Bft)
25.12.2010 21:52 7,9 C -4,9 C 0,0 UV-I 0,0 C 43 % 92 % 0 % 1027,4 hPa 0,0 l/m 0,8 km/h (0 Bft) 0 min 0 min 0,0 km/h (0 Bft)
25.12.2010 21:54 7,9 C -4,7 C 0,0 UV-I 0,0 C 43 % 92 % 0 % 1027,4 hPa 0,0 l/m 0,4 km/h (0 Bft) 0 min 0 min 0,0 km/h (0 Bft)
25.12.2010 21:56 7,9 C -4,8 C 0,0 UV-I 0,0 C 43 % 91 % 0 % 1027,4 hPa 0,0 l/m 0,4 km/h (0 Bft) 0 min 0 min 0,0 km/h (0 Bft)
25.12.2010 21:58 7,8 C -4,8 C 0,0 UV-I 0,0 C 43 % 91 % 0 % 1027,4 hPa 0,0 l/m 0,0 km/h (0 Bft) 0 min 0 min 0,0 km/h (0 Bft)
25.12.2010 22:00 7,9 C -4,8 C 0,0 UV-I 0,0 C 43 % 91 % 0 % 1027,4 hPa 0,0 l/m 0,0 km/h (0 Bft) 0 min 0 min 0,0 km/h (0 Bft)
25.12.2010 22:02 7,8 C -4,8 C 0,0 UV-I 0,0 C 43 % 91 % 0 % 1027,4 hPa 0,0 l/m 0,0 km/h (0 Bft) 0 min 0 min 0,0 km/h (0 Bft)
25.12.2010 22:04 7,9 C -4,8 C 0,0 UV-I 0,0 C 43 % 91 % 0 % 1027,4 hPa 0,0 l/m 0,0 km/h (0 Bft) 0 min 0 min 0,0 km/h (0 Bft)
25.12.2010 22:06 7,9 C -4,8 C 0,0 UV-I 0,0 C 43 % 91 % 0 % 1027,4 hPa 0,0 l/m 0,0 km/h (0 Bft) 0 min 0 min 3,5 km/h (1 Bft)
25.12.2010 22:08 7,9 C -4,8 C 0,0 UV-I 0,0 C 43 % 91 % 0 % 1027,4 hPa 0,0 l/m 0,4 km/h (0 Bft) 0 min 0 min 0,0 km/h (0 Bft)
25.12.2010 22:10 7,9 C -4,8 C 0,0 UV-I 0,0 C 43 % 91 % 0 % 1027,4 hPa 0,0 l/m 0,4 km/h (0 Bft) 0 min 0 min 0,0 km/h (0 Bft)
25.12.2010 22:12 7,9 C -4,7 C 0,0 UV-I 0,0 C 43 % 91 % 0 % 1027,4 hPa 0,0 l/m 0,4 km/h (0 Bft) 0 min 0 min 0,0 km/h (0 Bft)
25.12.2010 22:14 7,8 C -4,8 C 0,0 UV-I 0,0 C 43 % 91 % 0 % 1027,4 hPa 0,0 l/m 0,4 km/h (0 Bft) 0 min 0 min 3,2 km/h (1 Bft)
25.12.2010 22:16 7,9 C -4,8 C 0,0 UV-I 0,0 C 43 % 91 % 0 % 1027,4 hPa 0,0 l/m 0,4 km/h (0 Bft) 0 min 0 min 3,5 km/h (1 Bft)
25.12.2010 22:18 7,8 C -4,7 C 0,0 UV-I 0,0 C 43 % 91 % 0 % 1027,4 hPa 0,0 l/m 0,4 km/h (0 Bft) 0 min 0 min 4,2 km/h (1 Bft)
25.12.2010 22:20 7,9 C -4,9 C 0,0 UV-I 0,0 C 43 % 91 % 0 % 1027,4 hPa 0,0 l/m 0,4 km/h (0 Bft) 0 min 0 min 0,0 km/h (0 Bft)
25.12.2010 22:22 7,9 C -4,9 C 0,0 UV-I 0,0 C 43 % 91 % 0 % 1027,4 hPa 0,0 l/m 0,4 km/h (0 Bft) 0 min 0 min 0,0 km/h (0 Bft)
25.12.2010 22:24 7,9 C -4,9 C 0,0 UV-I 0,0 C 43 % 91 % 0 % 1027,4 hPa 0,0 l/m 0,4 km/h (0 Bft) 0 min 0 min 8,4 km/h (2 Bft)
25.12.2010 22:26 7,9 C -4,9 C 0,0 UV-I 0,0 C 43 % 91 % 0 % 1027,4 hPa 0,0 l/m 0,4 km/h (0 Bft) 0 min 0 min 0,0 km/h (0 Bft)
25.12.2010 22:28 7,9 C -4,9 C 0,0 UV-I 0,0 C 43 % 91 % 0 % 1027,4 hPa 0,0 l/m 0,4 km/h (0 Bft) 0 min 0 min 0,0 km/h (0 Bft)
25.12.2010 22:30 7,9 C -4,9 C 0,0 UV-I 0,0 C 43 % 91 % 0 % 1027,4 hPa 0,0 l/m 0,4 km/h (0 Bft) 0 min 0 min 4,2 km/h (1 Bft)
25.12.2010 22:32 7,9 C -4,9 C 0,0 UV-I 0,0 C 43 % 91 % 0 % 1027,4 hPa 0,0 l/m 0,4 km/h (0 Bft) 0 min 0 min 0,0 km/h (0 Bft)
25.12.2010 22:34 7,9 C -4,9 C 0,0 UV-I 0,0 C 43 % 91 % 0 % 1027,4 hPa 0,0 l/m 0,4 km/h (0 Bft) 0 min 0 min 0,0 km/h (0 Bft)
25.12.2010 22:36 7,9 C -4,9 C 0,0 UV-I 0,0 C 43 % 91 % 0 % 1027,4 hPa 0,0 l/m 0,4 km/h (0 Bft) 0 min 0 min 0,0 km/h (0 Bft)
25.12.2010 22:38 7,8 C -4,9 C 0,0 UV-I 0,0 C 43 % 91 % 0 % 1027,4 hPa 0,0 l/m 0,8 km/h (0 Bft) 0 min 0 min 5,5 km/h (1 Bft)
25.12.2010 22:40 7,8 C -4,9 C 0,0 UV-I 0,0 C 43 % 91 % 0 % 1027,4 hPa 0,0 l/m 0,4 km/h (0 Bft) 0 min 0 min 0,0 km/h (0 Bft)
25.12.2010 22:42 7,9 C -4,9 C 0,0 UV-I 0,0 C 43 % 91 % 0 % 1027,4 hPa 0,0 l/m 0,4 km/h (0 Bft) 0 min 0 min 0,0 km/h (0 Bft)
25.12.2010 22:44 7,9 C -4,9 C 0,0 UV-I 0,0 C 43 % 91 % 0 % 1027,4 hPa 0,0 l/m 0,4 km/h (0 Bft) 0 min 0 min 0,0 km/h (0 Bft)
25.12.2010 22:46 7,9 C -4,9 C 0,0 UV-I 0,0 C 43 % 91 % 0 % 1027,4 hPa 0,0 l/m 0,8 km/h (0 Bft) 0 min 0 min 0,0 km/h (0 Bft)
25.12.2010 22:48 7,9 C -4,9 C 0,0 UV-I 0,0 C 43 % 91 % 0 % 1027,4 hPa 0,0 l/m 0,8 km/h (0 Bft) 0 min 0 min 0,0 km/h (0 Bft)
25.12.2010 22:50 7,9 C -4,9 C 0,0 UV-I 0,0 C 43 % 91 % 0 % 1027,4 hPa 0,0 l/m 0,8 km/h (0 Bft) 0 min 0 min 0,0 km/h (0 Bft)
25.12.2010 22:52 7,9 C -4,9 C 0,0 UV-I 0,0 C 43 % 91 % 0 % 1027,4 hPa 0,0 l/m 0,8 km/h (0 Bft) 0 min 0 min 0,0 km/h (0 Bft)
25.12.2010 22:54 7,9 C -4,9 C 0,0 UV-I 0,0 C 43 % 91 % 0 % 1027,4 hPa 0,0 l/m 0,8 km/h (0 Bft) 0 min 0 min 0,0 km/h (0 Bft)
25.12.2010 22:56 7,9 C -4,9 C 0,0 UV-I 0,0 C 43 % 91 % 0 % 1027,4 hPa 0,0 l/m 0,8 km/h (0 Bft) 0 min 0 min 3,9 km/h (1 Bft)
25.12.2010 22:58 7,9 C -4,9 C 0,0 UV-I 0,0 C 43 % 91 % 0 % 1027,4 hPa 0,0 l/m 0,4 km/h (0 Bft) 0 min 0 min 0,0 km/h (0 Bft)
25.12.2010 23:00 7,9 C -4,9 C 0,0 UV-I 0,0 C 43 % 91 % 0 % 1027,4 hPa 0,0 l/m 0,8 km/h (0 Bft) 0 min 0 min 3,2 km/h (1 Bft)
25.12.2010 23:02 7,9 C -4,9 C 0,0 UV-I 0,0 C 43 % 91 % 0 % 1027,4 hPa 0,0 l/m 0,8 km/h (0 Bft) 0 min 0 min 3,9 km/h (1 Bft)
25.12.2010 23:04 7,9 C -4,9 C 0,0 UV-I 0,0 C 43 % 91 % 0 % 1027,4 hPa 0,0 l/m 0,8 km/h (0 Bft) 0 min 0 min 7,7 km/h (2 Bft)
25.12.2010 23:06 7,9 C -4,9 C 0,0 UV-I 0,0 C 43 % 91 % 0 % 1027,4 hPa 0,0 l/m 1,2 km/h (1 Bft) 0 min 0 min 0,0 km/h (0 Bft)
25.12.2010 23:08 7,9 C -4,9 C 0,0 UV-I 0,0 C 43 % 91 % 0 % 1027,4 hPa 0,0 l/m 1,6 km/h (1 Bft) 0 min 0 min 6,4 km/h (2 Bft)
25.12.2010 23:10 7,9 C -4,9 C 0,0 UV-I 0,0 C 43 % 91 % 0 % 1027,4 hPa 0,0 l/m 2,8 km/h (1 Bft) 0 min 0 min 6,4 km/h (2 Bft)
25.12.2010 23:12 7,9 C -5,0 C 0,0 UV-I 0,0 C 43 % 91 % 0 % 1027,4 hPa 0,0 l/m 3,6 km/h (1 Bft) 0 min 0 min 0,0 km/h (0 Bft)
25.12.2010 23:14 7,9 C -4,9 C 0,0 UV-I 0,0 C 43 % 91 % 0 % 1027,4 hPa 0,0 l/m 4,4 km/h (1 Bft) 0 min 0 min 6,4 km/h (2 Bft)
25.12.2010 23:16 7,9 C -4,9 C 0,0 UV-I 0,0 C 43 % 91 % 0 % 1027,4 hPa 0,0 l/m 4,4 km/h (1 Bft) 0 min 0 min 0,0 km/h (0 Bft)
25.12.2010 23:18 7,9 C -4,9 C 0,0 UV-I 0,0 C 43 % 91 % 0 % 1027,4 hPa 0,0 l/m 4,8 km/h (1 Bft) 0 min 0 min 4,2 km/h (1 Bft)
25.12.2010 23:20 7,9 C -5,1 C 0,0 UV-I 0,0 C 43 % 91 % 0 % 1027,4 hPa 0,0 l/m 4,8 km/h (1 Bft) 0 min 0 min 4,5 km/h (1 Bft)
25.12.2010 23:22 7,9 C -4,9 C 0,0 UV-I 0,0 C 43 % 91 % 0 % 1027,4 hPa 0,0 l/m 4,4 km/h (1 Bft) 0 min 0 min 3,2 km/h (1 Bft)
25.12.2010 23:24 7,9 C -5,1 C 0,0 UV-I 0,0 C 43 % 91 % 0 % 1027,4 hPa 0,0 l/m 4,4 km/h (1 Bft) 0 min 0 min 5,1 km/h (1 Bft)
25.12.2010 23:26 7,9 C -5,1 C 0,0 UV-I 0,0 C 43 % 91 % 0 % 1027,4 hPa 0,0 l/m 4,0 km/h (1 Bft) 0 min 0 min 5,1 km/h (1 Bft)
25.12.2010 23:28 7,9 C -5,1 C 0,0 UV-I 0,0 C 43 % 91 % 0 % 1027,4 hPa 0,0 l/m 4,4 km/h (1 Bft) 0 min 0 min 6,1 km/h (2 Bft)
25.12.2010 23:30 7,9 C -5,1 C 0,0 UV-I 0,0 C 43 % 91 % 0 % 1027,4 hPa 0,0 l/m 4,8 km/h (1 Bft) 0 min 0 min 6,8 km/h (2 Bft)
25.12.2010 23:32 7,9 C -5,1 C 0,0 UV-I 0,0 C 43 % 91 % 0 % 1027,4 hPa 0,0 l/m 4,8 km/h (1 Bft) 0 min 0 min 6,1 km/h (2 Bft)
25.12.2010 23:34 7,9 C -5,1 C 0,0 UV-I 0,0 C 43 % 91 % 0 % 1027,4 hPa 0,0 l/m 5,2 km/h (1 Bft) 0 min 0 min 5,5 km/h (1 Bft)
25.12.2010 23:36 7,9 C -5,1 C 0,0 UV-I 0,0 C 43 % 91 % 0 % 1027,4 hPa 0,0 l/m 5,2 km/h (1 Bft) 0 min 0 min 0,0 km/h (0 Bft)
25.12.2010 23:38 7,9 C -5,1 C 0,0 UV-I 0,0 C 43 % 91 % 0 % 1027,4 hPa 0,0 l/m 5,2 km/h (1 Bft) 0 min 0 min 5,1 km/h (1 Bft)
25.12.2010 23:40 7,9 C -5,1 C 0,0 UV-I 0,0 C 43 % 91 % 0 % 1027,4 hPa 0,0 l/m 6,0 km/h (2 Bft) 0 min 0 min 8,4 km/h (2 Bft)
25.12.2010 23:42 7,9 C -5,1 C 0,0 UV-I 0,0 C 43 % 91 % 0 % 1027,4 hPa 0,0 l/m 6,0 km/h (2 Bft) 0 min 0 min 6,8 km/h (2 Bft)
25.12.2010 23:44 7,9 C -5,1 C 0,0 UV-I 0,0 C 43 % 91 % 0 % 1027,4 hPa 0,0 l/m 6,0 km/h (2 Bft) 0 min 0 min 6,1 km/h (2 Bft)
25.12.2010 23:46 7,8 C -5,1 C 0,0 UV-I 0,0 C 43 % 91 % 0 % 1027,4 hPa 0,0 l/m 6,0 km/h (2 Bft) 0 min 0 min 6,8 km/h (2 Bft)
25.12.2010 23:48 7,9 C -5,1 C 0,0 UV-I 0,0 C 43 % 91 % 0 % 1027,4 hPa 0,0 l/m 6,0 km/h (2 Bft) 0 min 0 min 6,1 km/h (2 Bft)
25.12.2010 23:50 7,9 C -5,1 C 0,0 UV-I 0,0 C 43 % 91 % 0 % 1027,4 hPa 0,0 l/m 6,4 km/h (2 Bft) 0 min 0 min 11,6 km/h (2 Bft)
25.12.2010 23:52 7,9 C -5,1 C 0,0 UV-I 0,0 C 43 % 91 % 0 % 1027,4 hPa 0,0 l/m 6,8 km/h (2 Bft) 0 min 0 min 9,3 km/h (2 Bft)
25.12.2010 23:54 7,9 C -5,1 C 0,0 UV-I 0,0 C 43 % 91 % 0 % 1027,4 hPa 0,0 l/m 6,0 km/h (2 Bft) 0 min 0 min 4,2 km/h (1 Bft)
25.12.2010 23:56 7,8 C -5,1 C 0,0 UV-I 0,0 C 43 % 91 % 0 % 1027,4 hPa 0,0 l/m 6,0 km/h (2 Bft) 0 min 0 min 5,5 km/h (1 Bft)
25.12.2010 23:58 7,9 C -5,1 C 0,0 UV-I 0,0 C 43 % 91 % 0 % 1027,4 hPa 0,0 l/m 6,4 km/h (2 Bft) 0 min 0 min 6,8 km/h (2 Bft)
_ Min-Zeit 08:28 17:36 00:00 00:00 14:10 01:44 00:00 00:00 - 15:12 - - 03:18
Minimum _ 7,3 C -7,4 C 0,0 UV-I 0,0 C 41 % 86 % 0 % 1015,9 hPa - 0,0 km/h (0 Bft) - - 0,0 km/h (0 Bft)
_ Max-Zeit 14:30 00:00 00:00 13:58 00:00 20:26 13:14 19:46 00:00 02:14 12:22 00:00 02:02
Maximum _ 8,9 C -3,3 C 0,0 UV-I 5,3 C 45 % 92 % 100 % 1027,4 hPa 0,0 l/m 22,9 km/h
SW (4 Bft)
2 min 0 min 38,6 km/h
S (5 Bft)
Durchschnitt _ 7,9 C -5,2 C 0,0 UV-I 0,5 C 43 % 89 % 12 % 1022,3 hPa #0,0 l/m 5,0 km/h (1 Bft) #2:26 h #0 min. 5,2 km/h (1 Bft)
© 2012 W. Hausmann